[[{"header":{"parameterUnit":"m.s-1","parameterCategory":1,"la1":30.6,"la2":29.2853,"lo1":-89.7004,"lo2":-87.6739,"dy":0.0162,"dx":0.0183,"nx":112,"ny":82,"refTime":"2025-01-09T06:00:00:Z","depth":0,"parameterNumber":2,"parameterNumberName":"U-component_of_WINDS"},"data":[0.0,0.0,0.0,0.0,0.0,0.0,0.0,0.0,0.0,0.0,0.0,0.0,0.0,0.0,0.0,0.0,0.0,0.0,0.0,0.0,0.0,0.0,0.0,0.0,0.0,0.0,0.0,0.0,0.0,0.0,0.0,0.0,0.0,0.0,0.0,0.0,0.0,0.0,0.0,0.0,0.0,0.0,0.0,0.0,0.0,0.0,0.0,0.0,0.0,0.0,0.0,0.0,0.0,0.0,0.0,0.0,0.0,0.0,0.0,0.0,0.0,0.0,0.0,0.0,0.0,0.0,0.0,0.0,0.0,0.0,0.0,0.0,0.0,0.0,0.0,0.0,0.0,0.0,0.0,0.0,0.0,0.0,0.0,0.0,0.0,0.0,0.0,0.0,0.0,0.0,0.0,5.1164,5.3975,5.5428,5.4753,5.4317,5.2895,5.0073,0.0,0.0,0.0,0.0,0.0,0.0,0.0,0.0,0.0,0.0,0.0,0.0,0.0,0.0,0.0,0.0,0.0,0.0,0.0,0.0,0.0,0.0,0.0,0.0,0.0,0.0,0.0,0.0,0.0,0.0,0.0,0.0,0.0,0.0,0.0,0.0,0.0,0.0,0.0,0.0,0.0,0.0,0.0,0.0,0.0,0.0,0.0,0.0,0.0,0.0,0.0,0.0,0.0,0.0,0.0,0.0,0.0,0.0,0.0,0.0,0.0,0.0,0.0,0.0,0.0,0.0,0.0,0.0,0.0,0.0,0.0,0.0,0.0,0.0,0.0,0.0,0.0,0.0,0.0,0.0,0.0,0.0,0.0,0.0,0.0,0.0,0.0,0.0,0.0,0.0,0.0,0.0,0.0,0.0,0.0,0.0,0.0,0.0,0.0,0.0,0.0,0.0,0.0,0.0,5.0615,5.3608,5.5003,5.5667,5.5547,5.3524,5.1872,5.0883,0.0,0.0,0.0,0.0,0.0,0.0,0.0,0.0,0.0,0.0,0.0,0.0,0.0,0.0,0.0,0.0,0.0,0.0,0.0,0.0,0.0,0.0,0.0,0.0,0.0,0.0,0.0,0.0,0.0,0.0,0.0,0.0,0.0,0.0,0.0,0.0,0.0,0.0,0.0,0.0,0.0,0.0,0.0,0.0,0.0,0.0,0.0,0.0,0.0,0.0,0.0,0.0,0.0,0.0,0.0,0.0,0.0,0.0,0.0,0.0,0.0,0.0,0.0,0.0,0.0,0.0,0.0,0.0,0.0,0.0,0.0,0.0,0.0,0.0,0.0,0.0,0.0,0.0,0.0,0.0,0.0,0.0,0.0,0.0,0.0,0.0,0.0,0.0,0.0,0.0,0.0,0.0,0.0,0.0,0.0,0.0,0.0,0.0,0.0,0.0,0.0,0.0,0.0,4.9512,5.1334,5.421,5.5231,5.5508,5.5072,5.3563,5.1944,5.0346,4.9069,0.0,0.0,0.0,0.0,0.0,0.0,0.0,0.0,0.0,0.0,0.0,0.0,0.0,0.0,0.0,0.0,0.0,0.0,0.0,0.0,0.0,0.0,0.0,0.0,0.0,0.0,0.0,0.0,0.0,0.0,0.0,0.0,0.0,0.0,0.0,0.0,0.0,0.0,0.0,0.0,0.0,0.0,0.0,0.0,0.0,0.0,0.0,0.0,0.0,0.0,0.0,0.0,0.0,0.0,0.0,0.0,0.0,0.0,0.0,0.0,0.0,0.0,0.0,0.0,0.0,0.0,0.0,0.0,0.0,0.0,0.0,0.0,0.0,0.0,0.0,0.0,0.0,0.0,0.0,0.0,0.0,0.0,0.0,0.0,0.0,0.0,0.0,0.0,0.0,0.0,0.0,0.0,0.0,0.0,0.0,0.0,0.0,0.0,0.0,0.0,0.0,0.0,5.1068,5.2173,5.4517,5.531,5.539,5.4556,5.3507,5.1931,4.9752,4.768,0.0,0.0,0.0,0.0,0.0,0.0,0.0,0.0,0.0,0.0,0.0,0.0,0.0,0.0,0.0,0.0,0.0,0.0,0.0,0.0,0.0,0.0,0.0,0.0,0.0,0.0,0.0,0.0,0.0,0.0,0.0,0.0,0.0,0.0,0.0,0.0,0.0,0.0,0.0,0.0,0.0,0.0,0.0,0.0,0.0,0.0,0.0,0.0,0.0,0.0,0.0,0.0,0.0,0.0,0.0,0.0,0.0,0.0,0.0,0.0,0.0,0.0,0.0,0.0,0.0,0.0,0.0,0.0,0.0,0.0,0.0,0.0,0.0,0.0,0.0,0.0,0.0,0.0,0.0,0.0,0.0,0.0,0.0,0.0,0.0,0.0,0.0,0.0,0.0,0.0,0.0,0.0,0.0,0.0,0.0,0.0,0.0,0.0,0.0,0.0,0.0,0.0,5.2104,5.3683,5.5428,5.5667,5.539,5.4556,5.2943,5.1296,4.9716,4.6508,0.0,0.0,0.0,0.0,0.0,0.0,0.0,0.0,0.0,0.0,0.0,0.0,0.0,0.0,0.0,0.0,0.0,0.0,0.0,0.0,0.0,0.0,0.0,0.0,0.0,0.0,0.0,0.0,0.0,0.0,0.0,0.0,0.0,0.0,0.0,0.0,0.0,0.0,0.0,0.0,0.0,0.0,0.0,0.0,0.0,0.0,0.0,0.0,0.0,0.0,0.0,0.0,0.0,0.0,0.0,0.0,0.0,0.0,0.0,0.0,0.0,0.0,0.0,0.0,0.0,0.0,0.0,0.0,0.0,0.0,0.0,0.0,0.0,0.0,0.0,0.0,0.0,0.0,0.0,0.0,0.0,0.0,0.0,0.0,0.0,0.0,0.0,0.0,0.0,0.0,0.0,0.0,0.0,0.0,0.0,0.0,0.0,0.0,0.0,0.0,0.0,0.0,5.1711,5.3245,0.0,5.5706,5.5151,5.3801,5.3107,5.1568,4.8859,0.0,0.0,0.0,0.0,0.0,0.0,0.0,0.0,0.0,0.0,0.0,0.0,0.0,0.0,0.0,0.0,0.0,0.0,0.0,0.0,0.0,0.0,0.0,0.0,0.0,0.0,0.0,0.0,0.0,0.0,0.0,0.0,0.0,0.0,0.0,0.0,0.0,0.0,0.0,0.0,0.0,0.0,0.0,0.0,0.0,0.0,0.0,0.0,0.0,0.0,0.0,0.0,0.0,0.0,0.0,0.0,0.0,0.0,0.0,0.0,0.0,0.0,0.0,0.0,0.0,0.0,0.0,0.0,0.0,0.0,0.0,0.0,0.0,0.0,0.0,0.0,0.0,0.0,0.0,0.0,0.0,0.0,0.0,0.0,0.0,0.0,0.0,0.0,0.0,0.0,0.0,0.0,0.0,0.0,0.0,0.0,0.0,0.0,0.0,0.0,0.0,0.0,5.0168,5.1647,5.3168,0.0,5.5706,5.5033,5.3327,5.271,5.1058,4.7917,0.0,0.0,0.0,0.0,0.0,0.0,0.0,0.0,0.0,0.0,0.0,0.0,0.0,0.0,0.0,0.0,0.0,0.0,0.0,0.0,0.0,0.0,0.0,0.0,0.0,0.0,0.0,0.0,0.0,0.0,0.0,0.0,0.0,0.0,0.0,0.0,0.0,0.0,0.0,0.0,0.0,0.0,0.0,0.0,0.0,0.0,0.0,0.0,0.0,0.0,0.0,0.0,0.0,0.0,0.0,0.0,0.0,0.0,0.0,0.0,0.0,0.0,0.0,0.0,0.0,0.0,0.0,0.0,0.0,0.0,0.0,0.0,0.0,0.0,0.0,0.0,0.0,0.0,0.0,0.0,0.0,0.0,0.0,0.0,0.0,0.0,0.0,0.0,0.0,0.0,0.0,0.0,0.0,0.0,0.0,0.0,0.0,0.0,0.0,0.0,0.0,0.0,5.0248,5.2162,5.3842,5.5508,5.5706,5.5033,5.3365,5.168,4.9639,0.0,0.0,0.0,0.0,0.0,0.0,0.0,0.0,0.0,0.0,0.0,0.0,0.0,0.0,0.0,0.0,0.0,0.0,0.0,0.0,0.0,0.0,0.0,0.0,0.0,0.0,0.0,0.0,0.0,0.0,0.0,0.0,0.0,0.0,0.0,0.0,0.0,0.0,0.0,0.0,0.0,0.0,0.0,0.0,0.0,0.0,0.0,0.0,0.0,0.0,0.0,0.0,0.0,0.0,0.0,0.0,0.0,0.0,0.0,0.0,0.0,0.0,0.0,0.0,0.0,0.0,0.0,0.0,0.0,0.0,0.0,0.0,0.0,0.0,0.0,0.0,0.0,0.0,0.0,0.0,0.0,0.0,0.0,0.0,0.0,0.0,0.0,0.0,0.0,0.0,0.0,0.0,0.0,0.0,0.0,0.0,0.0,0.0,0.0,0.0,0.0,0.0,0.0,0.0,5.2162,5.3842,5.5508,5.5706,5.5269,5.4199,5.2551,5.0464,4.7921,0.0,0.0,0.0,0.0,0.0,0.0,0.0,0.0,0.0,0.0,0.0,0.0,0.0,0.0,0.0,0.0,0.0,0.0,0.0,0.0,0.0,0.0,0.0,0.0,0.0,0.0,0.0,0.0,0.0,0.0,0.0,0.0,0.0,0.0,0.0,0.0,0.0,0.0,0.0,0.0,0.0,0.0,0.0,0.0,0.0,0.0,0.0,0.0,0.0,0.0,0.0,0.0,0.0,0.0,0.0,0.0,0.0,0.0,0.0,0.0,0.0,0.0,0.0,0.0,0.0,0.0,0.0,0.0,0.0,0.0,0.0,0.0,0.0,0.0,0.0,0.0,0.0,0.0,0.0,0.0,0.0,0.0,0.0,0.0,0.0,0.0,0.0,0.0,0.0,0.0,0.0,0.0,0.0,0.0,0.0,0.0,0.0,0.0,0.0,0.0,0.0,0.0,5.0248,5.2162,5.3842,5.5508,5.5706,5.539,5.4556,5.291,5.0827,4.8278,0.0,0.0,0.0,0.0,0.0,0.0,0.0,0.0,0.0,0.0,0.0,0.0,0.0,0.0,0.0,0.0,0.0,0.0,0.0,0.0,0.0,0.0,0.0,0.0,0.0,0.0,0.0,0.0,0.0,0.0,0.0,0.0,0.0,0.0,0.0,0.0,0.0,0.0,0.0,0.0,0.0,0.0,0.0,0.0,0.0,0.0,0.0,0.0,0.0,0.0,0.0,0.0,0.0,0.0,0.0,0.0,0.0,0.0,0.0,0.0,0.0,0.0,0.0,0.0,0.0,0.0,0.0,0.0,0.0,0.0,0.0,0.0,0.0,0.0,0.0,0.0,0.0,0.0,0.0,0.0,0.0,0.0,0.0,0.0,0.0,0.0,0.0,0.0,0.0,0.0,0.0,0.0,0.0,0.0,0.0,0.0,0.0,0.0,0.0,0.0,0.0,0.0,5.0248,5.2162,5.3842,5.5508,5.5706,5.539,5.4676,5.2968,5.0835,4.8381,0.0,0.0,0.0,0.0,0.0,0.0,0.0,0.0,0.0,0.0,0.0,0.0,0.0,0.0,0.0,0.0,0.0,0.0,0.0,0.0,0.0,0.0,0.0,0.0,0.0,0.0,0.0,0.0,0.0,0.0,0.0,0.0,0.0,0.0,0.0,0.0,0.0,0.0,0.0,0.0,0.0,0.0,0.0,0.0,0.0,0.0,0.0,0.0,0.0,0.0,0.0,0.0,0.0,0.0,0.0,0.0,0.0,0.0,0.0,0.0,4.7495,0.0,0.0,0.0,0.0,0.0,0.0,0.0,0.0,0.0,0.0,0.0,0.0,0.0,0.0,0.0,0.0,0.0,0.0,0.0,0.0,0.0,0.0,0.0,0.0,0.0,0.0,0.0,0.0,0.0,0.0,0.0,0.0,0.0,0.0,0.0,0.0,0.0,0.0,0.0,0.0,0.0,5.0248,5.2162,5.3842,5.5508,5.5706,5.5629,5.547,5.3286,5.1119,4.9228,0.0,0.0,0.0,0.0,0.0,0.0,0.0,0.0,0.0,0.0,0.0,0.0,0.0,0.0,0.0,0.0,0.0,0.0,0.0,0.0,0.0,0.0,0.0,0.0,0.0,0.0,0.0,0.0,0.0,0.0,0.0,0.0,0.0,0.0,0.0,0.0,0.0,0.0,0.0,0.0,0.0,0.0,0.0,0.0,0.0,0.0,0.0,0.0,0.0,0.0,0.0,0.0,0.0,0.0,0.0,0.0,0.0,0.0,0.0,0.0,0.0,4.822,0.0,0.0,0.0,0.0,0.0,0.0,0.0,0.0,0.0,0.0,0.0,0.0,0.0,0.0,0.0,0.0,0.0,0.0,0.0,0.0,0.0,0.0,0.0,0.0,0.0,0.0,0.0,0.0,0.0,0.0,0.0,0.0,0.0,0.0,0.0,0.0,0.0,0.0,0.0,0.0,5.0366,5.2521,5.4317,5.5588,5.5706,5.5706,5.5706,5.4119,5.242,5.0702,4.7437,0.0,0.0,0.0,0.0,0.0,0.0,0.0,0.0,0.0,0.0,0.0,0.0,0.0,0.0,0.0,0.0,0.0,0.0,0.0,0.0,0.0,0.0,0.0,0.0,0.0,0.0,0.0,0.0,0.0,0.0,0.0,0.0,0.0,0.0,0.0,0.0,0.0,0.0,0.0,0.0,0.0,0.0,0.0,0.0,0.0,0.0,0.0,0.0,0.0,0.0,0.0,0.0,0.0,5.2503,5.2926,5.282,5.3695,5.409,5.4021,5.2613,5.1181,4.9776,0.0,0.0,0.0,0.0,0.0,0.0,0.0,0.0,0.0,0.0,0.0,0.0,0.0,0.0,0.0,0.0,0.0,0.0,0.0,0.0,0.0,0.0,0.0,0.0,0.0,5.1118,5.0943,0.0,0.0,0.0,0.0,0.0,0.0,0.0,0.0,0.0,0.0,0.0,0.0,5.0656,5.3023,5.4794,5.5626,5.5706,5.5706,5.5706,5.4954,5.3802,5.2222,4.9235,4.6764,0.0,0.0,0.0,0.0,0.0,0.0,0.0,0.0,0.0,0.0,0.0,0.0,0.0,0.0,0.0,0.0,0.0,0.0,0.0,0.0,0.0,0.0,0.0,0.0,0.0,0.0,0.0,0.0,0.0,0.0,0.0,0.0,4.5985,4.6685,0.0,0.0,0.0,0.0,0.0,0.0,0.0,0.0,0.0,0.0,0.0,0.0,0.0,0.0,5.1564,5.3772,5.4585,5.404,5.6356,5.706,5.636,5.7234,5.763,5.7633,5.7384,0.0,5.1569,5.144,0.0,0.0,0.0,0.0,0.0,0.0,0.0,0.0,0.0,0.0,0.0,0.0,0.0,0.0,0.0,0.0,0.0,0.0,0.0,0.0,0.0,0.0,5.3504,5.2833,5.2871,5.2635,0.0,4.9355,4.7645,4.659,0.0,0.0,0.0,0.0,0.0,0.0,0.0,0.0,5.1416,5.3373,5.4794,5.5626,5.5706,5.5706,5.5706,5.4954,5.4086,5.3107,5.1267,4.9422,4.7689,4.5169,0.0,0.0,0.0,0.0,0.0,0.0,0.0,0.0,0.0,0.0,0.0,0.0,0.0,0.0,0.0,0.0,0.0,0.0,0.0,0.0,0.0,0.0,0.0,0.0,0.0,0.0,0.0,0.0,0.0,4.624,4.6642,4.6349,4.6711,4.6694,0.0,0.0,0.0,0.0,0.0,0.0,0.0,0.0,0.0,5.1525,5.2708,5.3805,5.4776,5.5879,5.6489,5.6648,5.8234,5.8766,5.8443,5.9314,5.9713,5.9713,5.9713,5.835,5.606,5.4623,5.306,5.1449,0.0,0.0,0.0,0.0,0.0,5.0966,5.201,5.1982,0.0,0.0,0.0,0.0,0.0,0.0,0.0,0.0,0.0,0.0,0.0,0.0,0.0,5.3881,5.4279,5.4517,5.4119,5.2785,5.1004,0.0,4.8452,4.7704,4.4987,0.0,0.0,0.0,0.0,0.0,5.1767,5.3828,5.531,5.5667,5.5706,5.5706,5.5706,5.539,5.4833,5.396,5.2774,5.1541,5.0297,4.7803,4.5634,0.0,0.0,0.0,0.0,0.0,0.0,0.0,0.0,0.0,0.0,0.0,0.0,0.0,0.0,0.0,0.0,0.0,0.0,0.0,0.0,0.0,0.0,0.0,0.0,0.0,0.0,0.0,0.0,4.6835,4.7134,4.6474,4.7465,4.7722,0.0,0.0,0.0,0.0,0.0,0.0,5.0311,5.1703,5.2962,5.3961,5.5031,5.6261,5.7648,5.7846,5.8283,5.896,5.9554,5.9832,5.9832,6.0506,6.0784,6.0784,6.0784,6.0426,5.9639,5.7338,5.5513,5.408,5.322,5.251,5.2036,5.2669,5.3003,5.3448,5.5107,5.5025,5.4174,5.4184,0.0,5.042,4.8948,0.0,0.0,0.0,0.0,5.1544,5.2343,0.0,5.4268,5.4712,5.5428,5.5983,5.5747,5.5214,5.3936,0.0,5.12,5.0839,4.7468,0.0,0.0,0.0,0.0,5.2302,5.2546,5.4395,5.5706,5.5706,5.5706,5.5706,5.5706,5.5706,5.5428,5.4836,5.4001,5.3243,5.2607,5.0112,4.8061,0.0,0.0,0.0,0.0,0.0,0.0,0.0,0.0,0.0,0.0,0.0,0.0,0.0,0.0,0.0,0.0,0.0,0.0,0.0,0.0,0.0,0.0,0.0,0.0,0.0,0.0,0.0,0.0,0.0,0.0,4.7995,4.9197,0.0,0.0,0.0,0.0,5.0897,5.0671,5.1228,5.2833,5.3732,5.4792,5.611,5.7736,5.8844,5.9356,6.0189,6.0624,6.0666,6.0704,6.0742,6.0745,6.0784,6.0784,6.0784,6.0784,6.0784,6.0586,5.8886,5.7621,5.6718,5.5848,5.547,5.5432,5.547,5.6019,5.6639,5.5956,5.6184,5.6794,5.6802,5.5657,5.4072,5.3159,5.1813,0.0,0.0,5.2417,5.3288,5.4122,5.5563,5.6615,5.5818,5.6302,5.67,5.5865,5.567,5.5115,0.0,5.2398,5.1574,5.0624,0.0,5.0781,5.1467,5.2467,5.3433,5.4241,5.5167,5.5706,5.5706,5.5706,5.5706,5.5706,5.5706,5.5667,5.5629,5.4874,5.4399,5.4366,5.1904,5.0128,4.9248,4.5903,0.0,0.0,0.0,0.0,0.0,0.0,0.0,0.0,0.0,0.0,0.0,0.0,0.0,0.0,0.0,0.0,0.0,0.0,0.0,0.0,0.0,0.0,0.0,0.0,0.0,0.0,0.0,0.0,5.0143,5.1516,0.0,0.0,5.1126,5.1672,5.2372,5.3045,5.379,5.4666,5.601,5.6959,5.7426,5.8564,5.9421,5.9867,6.0189,6.0506,6.0784,6.0784,6.0784,6.0784,6.0784,6.0784,6.0784,6.0784,6.0784,6.0745,6.0151,5.9394,5.8564,5.8265,5.7834,5.7358,5.7358,5.791,5.8545,5.825,5.8336,5.8436,5.7341,5.6591,5.595,5.5054,5.4769,5.4792,5.5086,5.5819,5.6563,5.6841,5.7387,5.7775,5.7431,5.7176,5.6915,5.6596,5.6093,5.5508,5.4912,5.4151,5.3121,5.1721,5.1923,5.22,5.1926,5.3123,5.4164,5.4475,5.5206,5.5706,5.5706,5.5706,5.5706,5.5706,5.5706,5.5706,5.5706,5.5428,5.5046,5.4521,5.3095,5.1662,5.0272,4.7931,4.5383,0.0,0.0,0.0,0.0,0.0,0.0,0.0,0.0,0.0,0.0,0.0,0.0,0.0,0.0,0.0,0.0,0.0,0.0,0.0,0.0,0.0,0.0,0.0,0.0,0.0,0.0,5.1237,5.1475,5.3178,5.3888,5.2768,5.3197,5.3821,5.4495,5.5201,5.5833,5.6377,5.7462,5.8124,5.8294,5.885,5.9399,5.9876,5.9845,6.0012,6.0331,6.0331,6.0331,6.0334,6.0492,6.0543,6.0552,6.0737,6.0784,6.0784,6.0784,6.0467,5.995,5.995,5.9595,5.9158,5.9158,5.9474,5.995,5.995,5.9923,5.9707,5.8283,5.7824,5.7709,5.6821,5.6975,5.7437,5.7431,5.7852,5.8316,5.8316,5.8508,5.8624,5.8355,5.8052,5.7709,5.7135,5.6558,5.6055,5.5744,5.5283,5.4549,5.3392,5.3662,5.3854,5.3274,5.4164,5.4898,5.4898,5.5359,5.5824,5.6093,5.5862,5.5824,5.6093,5.5629,5.5285,5.5288,5.5011,5.4629,5.407,5.2956,5.1842,5.0731,4.8733,4.6585,4.4371,0.0,0.0,0.0,0.0,0.0,0.0,0.0,0.0,0.0,0.0,0.0,0.0,0.0,0.0,0.0,0.0,0.0,0.0,0.0,0.0,0.0,0.0,0.0,4.878,5.01,5.1204,5.1942,5.4203,5.5332,5.4493,5.5168,5.6166,5.7335,5.7044,5.7171,5.796,5.8002,5.8209,5.8665,5.8665,5.8882,5.9358,5.9397,5.9421,5.9415,5.9415,5.9424,5.9454,5.9897,6.0114,6.0146,6.061,6.0784,6.0784,6.0784,6.0784,6.0784,6.0784,6.0784,6.0784,6.0784,6.0784,6.0784,6.0784,6.0784,6.0668,5.9819,5.9547,5.9396,5.8624,5.8393,5.8393,5.8393,5.8393,5.8393,5.8393,5.897,5.9358,5.8547,5.8932,5.905,5.744,5.7058,5.6788,5.5939,5.5783,5.5744,5.5706,5.5706,5.5744,5.5744,5.5744,0.0,5.5783,5.5783,5.6093,5.6942,5.6285,5.6093,5.6942,5.5516,5.4557,5.449,5.3697,5.3226,5.32,5.1631,5.0774,5.0737,4.8272,4.6997,4.6968,0.0,0.0,0.0,0.0,0.0,0.0,0.0,0.0,0.0,0.0,0.0,0.0,0.0,0.0,0.0,0.0,0.0,0.0,0.0,0.0,0.0,0.0,4.8517,5.0069,5.2109,5.3919,5.5301,5.6583,5.725,5.7001,5.7208,5.7462,5.7796,5.7748,5.7753,5.7997,5.8002,5.8045,5.8203,5.8203,5.8408,5.89,5.9248,5.9559,5.9908,5.9908,6.0096,6.043,6.0189,6.0297,6.0619,6.0746,6.0784,6.0784,6.0784,6.0784,6.0784,6.0784,6.0784,6.0784,6.0784,6.0784,6.0784,6.0784,6.0784,6.0745,6.0515,6.0435,6.0399,6.0168,6.013,6.013,6.013,6.013,6.013,6.013,6.0284,6.0396,6.0168,5.9781,5.9358,5.8896,5.8357,5.7857,5.7624,5.7588,5.7165,5.5937,5.6209,5.6634,5.6634,0.0,0.0,5.7588,5.7588,5.7662,5.7934,5.7742,5.7434,5.7019,5.6596,5.5785,0.0,5.428,5.3851,5.3238,5.2751,5.2204,5.1597,5.0329,4.934,0.0,0.0,0.0,0.0,0.0,0.0,0.0,0.0,0.0,0.0,0.0,0.0,0.0,0.0,0.0,0.0,0.0,0.0,0.0,0.0,0.0,0.0,4.8876,5.0442,5.2082,5.3532,5.4999,5.6626,5.7504,5.8002,5.8002,5.8002,5.8002,5.8002,5.8002,5.8002,5.8002,5.8002,5.8002,5.8002,5.8002,5.8136,5.8402,5.8693,5.8961,5.9212,5.9212,5.9354,5.9609,5.9538,5.9646,0.0,6.0132,6.02,6.02,6.02,6.02,0.0,0.0,0.0,0.0,0.0,6.0784,6.0766,6.0552,6.0502,6.0479,6.029,6.0345,6.0502,6.0502,6.0641,6.0784,6.0784,6.0784,6.0784,6.0784,6.0784,6.0784,6.0784,6.0399,5.9935,5.9588,5.9124,5.8701,5.8355,0.0,0.0,5.6973,5.7206,5.7552,5.7552,5.7973,5.8316,0.0,5.8316,5.8432,5.8778,5.8508,5.8239,5.8055,5.7055,0.0,0.0,0.0,5.3546,5.2697,0.0,0.0,0.0,0.0,0.0,0.0,0.0,0.0,0.0,4.9783,4.9692,0.0,0.0,0.0,0.0,0.0,0.0,0.0,0.0,0.0,0.0,0.0,0.0,0.0,0.0,0.0,0.0,5.0712,5.281,5.4436,5.4655,5.5222,5.6753,5.7584,5.8002,5.8002,5.8002,5.8002,5.8002,5.8002,5.8002,5.8002,0.0,0.0,0.0,0.0,5.8002,5.8002,5.8065,5.8063,5.8063,5.8063,5.8102,5.8181,5.8518,5.8711,5.8796,5.9212,5.9424,5.9471,5.9471,5.9501,5.9659,6.0436,6.0731,6.0731,6.0731,6.0754,6.074,6.0276,0.0,0.0,5.9674,5.9812,6.0107,6.0107,6.0348,6.0644,6.0722,6.0668,6.0656,6.0766,6.0757,6.074,6.0775,6.0784,6.0592,5.9819,5.9665,5.9432,5.8701,5.8585,5.8585,5.8585,5.8508,5.8432,5.8432,5.8508,0.0,5.8585,5.8585,5.8855,5.9588,0.0,0.0,5.9435,5.7434,5.6052,5.5862,5.4434,5.3274,5.2505,5.2579,5.2928,5.3623,5.3739,5.4857,5.6981,5.7096,5.7173,5.717,5.3229,5.2997,0.0,0.0,0.0,0.0,0.0,0.0,0.0,0.0,0.0,0.0,0.0,0.0,0.0,0.0,0.0,5.1027,5.2789,5.4515,5.6119,5.6331,5.6675,5.7637,5.7917,5.8002,5.8002,5.8002,5.8002,5.8002,5.8002,5.8002,5.8002,5.8002,0.0,5.8002,5.8002,5.8002,5.8002,5.8365,5.856,5.856,0.0,0.0,5.9107,5.883,5.8913,5.9262,5.9354,5.9601,5.9954,5.9954,6.0182,6.0505,6.0317,6.0255,6.0255,6.0255,6.0479,6.074,6.0276,6.0345,6.0644,6.0578,6.0334,6.0107,6.0107,5.9897,0.0,6.0132,5.9954,5.9851,6.061,6.0511,6.0331,6.0725,6.0784,6.0745,6.0592,6.0553,6.0515,6.0361,6.0322,6.0322,6.0322,5.9742,5.9278,5.9278,5.9858,6.0322,6.0322,6.0322,6.0361,6.0515,6.0399,6.0089,5.9547,5.905,5.8206,5.6827,5.6431,5.62,5.6016,5.6703,5.6819,5.6285,5.6973,5.7203,5.6981,5.7706,5.8396,5.8973,5.6794,5.6113,0.0,0.0,0.0,0.0,0.0,0.0,0.0,0.0,0.0,0.0,0.0,4.7012,0.0,0.0,5.1284,5.2936,5.4546,5.5899,5.6701,5.7147,5.7556,5.7966,5.8002,5.8002,5.8002,5.8002,5.8002,5.8002,5.8002,5.8002,5.8002,5.8002,5.8002,5.8002,5.8002,5.8002,5.8002,5.8222,5.8332,5.8332,5.8332,5.8482,5.8708,5.8466,5.8487,5.8713,5.8713,5.883,5.907,5.907,5.9176,5.9394,5.9394,5.9704,6.0085,5.9843,5.9897,6.0014,5.9551,5.9543,5.9728,5.9467,5.9394,5.9394,5.9394,5.9555,5.9764,5.9764,5.9916,6.0154,6.0375,6.0459,6.0505,6.0746,6.0784,6.0784,6.0784,6.0784,6.0784,6.0784,6.0784,6.0784,6.0784,6.0438,6.0165,6.0165,6.0515,6.0784,6.0784,6.0784,6.0784,6.0784,6.0784,6.063,6.0204,5.9742,5.8973,5.7745,5.7662,5.7659,5.7668,5.8085,5.828,5.8245,5.8665,5.8896,5.8902,5.9322,5.9742,6.0127,5.9281,5.8896,0.0,0.0,0.0,0.0,0.0,0.0,0.0,0.0,4.6058,4.7521,4.7925,4.87,5.087,5.205,5.3198,5.462,5.6082,5.7036,5.7036,5.7593,5.8002,5.8002,5.8002,5.8002,5.8002,5.8002,5.8002,5.8002,5.8002,5.8002,5.8002,5.8002,5.8002,5.8002,5.8002,5.8002,5.8002,5.8002,5.8002,5.8002,5.8002,5.8002,5.8002,5.8002,5.8002,5.8008,5.8091,5.8142,5.8147,5.8227,5.8277,5.831,5.8585,5.9153,5.9796,5.9398,5.9315,5.9324,5.8859,5.8746,5.8761,5.8391,5.8476,5.8713,5.8713,5.9153,5.9617,5.9337,5.9756,6.02,5.9999,6.0228,6.0537,6.0637,6.074,6.0784,6.0784,6.0784,6.0784,6.0784,6.0784,6.0784,6.0784,6.0784,6.0784,6.0784,6.0784,6.0784,6.0784,6.0784,6.0784,6.0784,6.0784,6.0784,6.0784,6.0165,5.9473,5.8819,5.8778,5.8778,5.8778,5.8778,5.9085,5.9742,5.9742,6.0089,6.0784,6.0784,6.0784,6.0784,6.0784,6.0784,4.437,4.3901,0.0,4.5259,4.57,4.6324,0.0,0.0,4.9307,5.021,5.0949,5.1756,5.2737,5.4179,5.5475,5.6376,5.7293,5.7886,5.7886,5.7923,5.8002,5.8002,5.8002,5.8002,5.8002,5.8002,5.8002,5.8002,5.8002,5.8002,5.8002,5.8002,5.8002,5.8002,5.8002,5.8002,5.8002,5.8002,5.8002,5.8002,5.8002,5.8002,5.8002,5.8002,5.8002,5.8031,5.8445,5.8627,5.8662,5.9056,5.9235,5.9199,5.884,5.8751,5.885,5.8791,5.9023,5.9324,5.8859,5.8985,5.9306,5.9253,5.9009,5.8713,5.8713,5.8498,5.832,5.8688,5.8544,5.8508,5.927,5.9509,5.9646,6.0089,6.0495,6.0784,6.0784,6.0784,6.0784,6.0784,6.0784,6.0784,6.0784,6.0784,6.0784,6.0784,6.0784,6.0784,6.0784,6.0784,6.0784,6.0784,6.0784,6.0784,6.0784,6.0707,6.063,6.0515,6.0515,6.0515,6.0515,6.0515,6.0553,6.0668,6.0668,6.0707,6.0784,6.0784,6.0784,6.0784,6.0784,6.0784,4.4847,0.0,0.0,0.0,4.6617,4.7682,4.9238,4.9605,5.0083,5.1825,5.2449,5.3219,5.4976,5.5825,5.6565,0.0,5.7776,5.8002,5.8002,5.8002,5.8002,5.8002,5.8002,5.8002,5.8002,5.8002,5.8002,5.8002,5.8002,5.8002,5.8002,5.8431,5.8688,5.8688,5.8688,5.8908,5.9391,5.8945,5.8945,5.9391,5.9391,5.9391,5.9391,5.9391,5.9391,5.9366,5.9099,5.899,5.8969,5.8704,5.858,5.856,5.8359,5.8299,5.8299,5.8299,5.8418,5.8549,5.8348,5.8418,5.858,5.858,5.8461,5.8299,5.8299,5.8332,5.8386,5.8326,5.8534,5.884,5.8971,5.9185,5.9441,5.9667,5.9847,5.9973,5.9973,5.9973,6.0078,6.0338,6.0378,6.0482,6.0754,6.0784,6.0784,6.0784,6.0784,6.0784,6.0784,6.0784,6.0784,6.0784,6.0784,6.0784,6.0784,6.0784,6.0784,6.0784,6.0784,6.0784,6.0784,6.0784,6.0784,6.0784,6.0784,6.0784,6.0784,6.0784,6.1056,6.1556,6.1556,6.1823,4.4847,0.0,0.0,4.6434,4.7792,4.9219,5.0078,5.0597,5.1436,5.3183,5.3875,5.4719,5.6486,5.6963,0.0,5.7923,5.8002,5.8002,5.8002,5.8002,5.8002,5.8002,5.8002,5.8002,5.8002,5.8002,5.8107,5.8327,5.8321,5.8437,5.8657,5.9196,5.9526,5.9526,5.9526,5.982,6.0376,5.982,5.982,6.0413,6.0413,6.0413,6.0413,6.0413,6.0413,6.0376,5.9783,5.941,5.9153,5.8578,5.8217,5.8002,5.8002,5.8143,5.8284,5.8076,5.8002,5.8002,5.8002,5.8002,5.8002,5.8002,5.8002,5.8002,5.8002,5.8233,5.8439,5.8091,5.8503,5.8947,5.8596,5.8855,5.9199,5.9199,5.9297,5.9394,5.9394,5.9492,5.9674,6.0014,6.0193,6.0385,6.0746,6.0784,6.0784,6.0784,6.0784,6.0784,6.0784,6.0784,6.0784,6.0784,6.0784,6.0784,6.0784,6.0784,6.0784,6.0784,6.0784,6.0784,6.0784,6.0784,6.0784,6.0784,6.0784,6.0938,6.1169,6.1169,6.1595,6.2441,6.2441,6.2743,0.0,0.0,4.6287,4.7824,4.9476,5.0949,5.1725,5.3115,5.4289,5.4363,5.5605,5.6701,5.6774,5.7446,5.7966,5.8002,5.8002,5.8002,5.8002,5.8002,5.8002,5.8002,5.8002,5.8002,0.0,5.8002,5.8327,5.908,5.9153,5.949,6.0303,6.034,6.0376,6.0376,6.0376,6.0376,6.0413,6.0376,6.0376,6.0413,6.0413,6.0413,6.0413,6.0413,6.0413,6.0413,6.0376,5.993,5.919,5.9153,5.8688,5.8002,5.8002,5.8468,5.908,5.829,5.8002,5.8002,5.8002,5.8002,5.8002,5.8002,5.8002,5.8002,5.8002,5.8014,5.8025,5.8002,5.8025,5.8054,5.8031,5.8359,5.8701,5.8701,5.9051,5.9394,5.9394,5.9772,6.0096,6.0107,6.0472,6.0772,6.0784,6.0784,6.0784,6.0784,6.0784,6.0784,6.0784,6.0784,6.0784,6.0784,6.0784,6.0784,6.0784,6.0784,6.0784,6.0784,6.0784,6.0784,6.0784,6.0784,6.0784,6.0784,6.0784,6.121,6.2059,6.2059,6.2477,6.3275,6.3275,6.3275,0.0,0.0,4.7897,4.9549,5.0765,5.1793,5.2595,5.3623,5.4399,5.4399,5.5249,5.6161,5.6706,5.7036,5.7373,5.7923,5.8002,5.8002,5.8002,5.8002,5.8002,5.8002,5.8002,0.0,0.0,0.0,0.0,5.9159,5.919,5.9563,6.0376,6.0896,6.119,6.119,6.119,6.1447,6.1991,6.1441,6.1441,6.1985,6.1985,6.1985,6.1985,6.1985,6.1985,6.1955,6.1447,6.1043,6.075,6.023,5.9826,5.9606,5.9606,5.9753,5.9973,5.9679,5.9606,5.9428,5.8364,5.8002,5.8002,5.8002,5.8002,5.8002,5.8002,5.8002,5.8002,5.8002,5.8002,5.8002,5.8002,5.8119,5.8227,5.8227,5.8343,5.8482,5.8482,5.8596,5.8791,5.9098,5.9543,6.0152,6.1027,6.1454,6.1672,6.1672,6.1172,6.0784,6.0784,6.0784,6.0784,6.0784,6.1325,6.1672,6.1672,6.2166,6.2471,6.2471,6.2471,6.2471,6.2471,6.2471,6.2471,6.2471,6.2471,6.2586,6.2894,6.2894,6.3317,6.4163,6.4163,6.4471,0.0,4.7755,4.915,5.0802,5.183,5.2559,5.3067,5.3807,5.4399,5.4399,5.5029,5.5763,5.6271,5.6596,5.6963,5.7483,5.7813,5.8002,5.8002,5.8002,5.8002,5.8002,5.8002,0.0,0.0,0.0,0.0,5.9563,5.9636,6.0114,6.1184,6.1734,6.2034,6.2034,6.2034,6.2285,6.2793,6.2285,6.2285,6.2793,6.2793,6.2793,6.2793,6.2793,6.2793,6.2756,6.2248,6.1851,6.1563,6.1043,6.067,6.0413,6.0413,6.056,6.0786,6.0523,6.056,6.0603,5.8982,5.8431,5.8394,5.8107,5.8002,5.8002,5.8002,5.8002,5.8076,5.8364,5.8431,5.851,5.8767,5.8841,5.8804,5.851,5.8657,5.8767,5.8505,5.8793,5.9198,5.9487,5.9942,6.058,6.1641,6.2217,6.2515,6.2515,6.2053,6.1473,6.0899,6.1056,6.1248,6.1248,6.2015,6.2515,6.2515,6.3009,6.3314,6.3314,6.3314,6.3314,6.3314,6.3314,6.3314,6.3314,6.3314,6.3468,6.3775,6.3775,6.4202,6.5051,6.5051,6.5359,4.7714,4.9045,5.0083,5.1657,5.2637,5.3214,5.3214,5.3807,5.4399,5.4363,5.4992,5.5548,0.0,0.0,5.6743,5.6774,5.7477,5.8002,5.8002,5.8039,5.807,0.0,0.0,0.0,0.0,0.0,0.0,6.034,0.0,6.1111,6.2719,6.2793,6.2793,6.2793,6.2793,6.2793,6.2793,6.2793,6.2793,6.2793,6.2793,6.2793,6.2793,6.2793,6.2793,6.2793,6.2793,6.2358,6.1673,6.1673,6.1227,6.0523,6.0523,6.1006,6.1563,6.078,6.1006,6.1453,5.9857,5.93,5.9159,5.8364,5.8107,5.8107,5.8107,5.8107,5.829,5.9049,5.9264,5.9453,6.0193,6.0413,6.023,5.9453,5.982,6.0193,5.941,6.0196,6.1055,6.1055,6.1482,6.2027,6.2554,6.3023,6.3331,6.3349,6.3314,6.2737,6.113,6.1633,6.2172,6.2172,6.2897,6.3352,6.3352,6.3429,6.3429,6.3429,6.3429,6.3429,6.3429,6.3429,6.3429,6.3429,6.3429,6.3855,6.4666,6.4666,6.5089,6.59,6.59,6.59,4.894,5.0298,5.1615,5.2632,5.3067,5.3214,5.3214,5.3807,5.4216,5.3623,5.4137,5.4698,0.0,0.0,0.0,5.6706,5.7477,0.0,5.8002,5.8505,0.0,0.0,0.0,5.9795,5.9795,5.9795,0.0,0.0,6.075,6.1111,6.2719,6.2793,6.2793,6.2793,6.2793,6.2793,6.2793,6.2793,6.2793,6.2793,6.2793,6.2793,6.2793,6.2793,6.2793,6.2793,6.2793,6.2683,6.2505,6.2505,6.2352,6.2205,6.2205,6.2316,6.2469,6.2242,6.2322,6.2358,6.1337,6.0597,6.0046,5.9863,5.9795,5.9795,5.9795,5.9795,5.9826,6.0046,6.0077,6.0156,6.034,6.0413,6.034,6.0156,6.0266,6.034,6.0156,6.0354,6.057,6.057,6.1473,6.2492,6.3356,6.3607,6.3813,6.4203,6.374,6.316,6.2701,6.2855,6.2971,6.2971,6.3778,6.4279,6.4279,6.4859,6.5243,6.5243,6.5243,6.5243,6.5243,6.5243,6.5243,6.5243,6.5243,6.5362,6.5554,6.5554,6.567,6.59,6.59,6.59,4.9779,5.1032,5.2202,5.2994,5.3214,5.3104,5.2742,5.3293,5.355,5.2375,5.3073,0.0,0.0,0.0,0.0,0.0,0.0,0.0,5.8468,5.8902,5.9343,0.0,6.012,0.0,6.0413,6.0413,6.075,0.0,6.119,6.1478,6.2719,6.2793,6.2793,6.2793,6.2793,6.2793,6.2793,6.2793,6.2793,6.2793,6.2793,6.2793,6.2793,6.2793,6.2793,6.2793,0.0,6.2793,6.2793,6.2793,6.2793,6.2793,6.2793,6.2793,6.2793,6.2793,6.2793,6.2756,6.2285,6.1845,6.1331,6.0633,6.0413,6.0413,6.0413,6.0413,6.045,6.0823,6.0933,6.1006,6.1367,6.1441,6.1367,6.1006,6.1184,6.1367,6.1006,6.1184,6.1441,6.1441,6.2256,6.3171,6.3923,6.4247,6.455,6.5077,6.4743,6.4432,6.4432,6.4125,6.3852,6.3852,6.4663,6.5166,6.5166,6.5631,6.59,6.59,6.59,6.59,6.59,6.59,6.59,6.59,6.59,6.59,6.59,6.6247,6.6439,6.6439,6.6821,6.7013,5.0545,5.1536,5.2344,5.3031,5.3214,5.2999,5.2165,5.2527,5.2627,5.1127,0.0,0.0,5.2129,0.0,5.5585,5.5585,0.0,5.829,5.9086,5.93,5.9673,6.045,6.0633,6.0707,6.0707,6.0707,6.1,6.171,6.1741,6.2071,6.2756,6.2793,6.2793,6.2793,6.2793,6.2793,6.2793,6.2793,6.2793,6.2793,6.2793,6.2793,6.2793,6.2793,6.2793,6.2793,0.0,0.0,6.2793,6.2793,6.2793,6.2793,6.2793,6.2793,6.2793,6.2793,6.2793,6.2793,6.2793,6.2793,6.2572,6.1184,6.0707,6.0707,6.0707,6.0707,6.0854,6.1557,6.1741,6.1924,6.2615,6.2793,6.2609,6.1924,6.2285,6.2609,6.1924,6.2401,6.2976,6.2976,6.3433,6.4011,6.4619,6.5068,6.5524,6.6147,6.6244,6.6244,6.6244,6.5397,6.4779,6.4779,6.5551,6.6054,6.6054,6.617,6.6244,6.6244,6.6244,6.6244,6.6244,6.6244,6.6244,6.6244,6.6244,6.6244,6.6244,6.6939,6.7285,6.7285,6.8048,6.8391,5.1541,5.238,5.3031,5.3177,5.3214,5.2999,5.2165,5.2097,0.0,0.0,0.0,5.2165,5.2024,5.3969,0.0,5.5585,0.0,0.0,0.0,0.0,6.0487,0.0,0.0,0.0,0.0,0.0,0.0,0.0,0.0,6.2646,6.2793,6.2793,6.2793,6.2793,6.2793,6.2793,6.2793,6.2793,6.2793,6.2793,6.2793,6.2793,6.2793,6.2793,6.2793,6.2793,6.2793,0.0,6.2793,6.2793,6.2793,6.2793,6.2793,6.2793,6.2793,6.2793,6.2793,6.2793,6.2793,6.2793,6.2756,6.2462,6.2389,6.2389,6.2389,6.2389,6.2426,6.2536,6.2572,6.2609,6.2756,6.2793,6.2756,6.2646,6.2683,6.2756,6.2609,6.3282,6.3876,6.3876,6.4472,6.5297,6.6202,6.6442,6.6842,6.7832,6.7971,6.7971,6.7971,6.6628,6.567,6.567,6.6401,6.6901,6.6901,6.7552,6.7971,6.7971,6.7971,6.7971,6.7971,6.7971,6.7971,6.7971,6.7971,6.7971,6.7971,6.8122,6.816,6.8164,6.8314,6.8391,5.1762,5.2894,5.3733,5.3287,5.3513,5.3403,5.1756,0.0,0.0,0.0,0.0,5.1872,5.1463,0.0,0.0,0.0,0.0,0.0,0.0,0.0,0.0,0.0,0.0,0.0,0.0,0.0,0.0,0.0,0.0,6.3276,6.2829,6.3239,6.3466,6.3466,6.39,6.4114,6.4114,6.4114,6.4114,6.4114,6.4114,6.4114,6.4114,6.4114,6.4114,6.4114,6.4114,0.0,6.3466,6.3466,6.3203,6.2866,6.3313,6.3466,6.3539,6.3937,6.4114,6.4114,6.4114,6.4114,6.4114,6.4114,6.3527,6.2793,6.2793,6.2793,6.2793,6.2793,6.2793,6.2903,6.3356,6.3466,6.3576,6.4004,6.4114,6.4114,6.4114,6.4414,6.4714,6.4714,6.5038,6.5533,6.6276,6.6633,6.7074,6.7848,6.8227,6.8391,6.8391,6.7702,6.7202,6.7202,6.7552,6.7782,6.7782,6.8164,6.8391,6.8391,6.8391,6.8391,6.8391,6.8391,6.8391,6.8391,6.8391,6.8391,6.8391,6.8856,6.9087,6.9087,6.951,6.9702,5.2202,5.345,5.4289,5.3843,5.4064,5.3812,5.1573,5.1394,0.0,0.0,0.0,0.0,5.0912,0.0,0.0,0.0,0.0,0.0,0.0,0.0,0.0,0.0,0.0,0.0,0.0,0.0,0.0,0.0,0.0,0.0,6.338,6.398,6.4353,6.4353,6.4964,6.5288,6.5288,6.5288,6.5288,6.5288,6.5288,6.5288,6.5288,6.5288,6.5288,6.5288,6.5288,0.0,0.0,6.4353,6.3943,6.3417,6.409,6.4353,6.4427,6.5074,6.5288,6.5288,6.5288,6.5288,6.5288,6.5288,6.4297,6.3123,6.327,6.3233,6.3123,6.3306,6.3343,6.349,6.4163,6.4353,6.4537,6.5148,6.5288,6.5288,6.5288,6.5435,6.5552,6.5552,6.5698,6.5954,6.6447,6.6877,6.7351,6.7873,6.8321,6.8608,6.8608,6.8684,6.8775,6.8775,6.869,6.866,6.866,6.8853,6.893,6.893,6.893,6.893,6.893,6.893,6.893,6.893,6.893,6.893,6.893,6.9625,6.9975,6.9972,7.0591,7.0898,5.3555,5.4289,5.4546,5.5218,5.4882,5.3959,5.2275,0.0,0.0,0.0,4.9696,5.0875,5.0802,0.0,0.0,0.0,0.0,0.0,0.0,0.0,0.0,0.0,0.0,0.0,0.0,0.0,0.0,0.0,0.0,0.0,6.5068,6.5148,6.5185,6.5185,6.5258,6.5288,6.5288,6.5288,6.5288,6.5288,6.5288,6.5288,6.5288,6.5288,6.5288,6.5288,6.5288,0.0,0.0,6.5185,6.5141,6.5068,6.5148,6.5185,6.5185,6.5251,6.5288,6.5288,6.5288,6.5288,6.5288,6.5288,6.4707,6.4133,6.4854,6.4567,6.4133,6.4854,6.5068,6.5074,6.5185,6.5185,6.5221,6.5295,6.5288,6.5288,6.5288,6.5882,6.6402,6.6402,6.6996,6.7661,6.8175,6.8297,6.8537,6.9066,6.9191,6.9221,6.9221,6.9628,6.9933,6.9933,6.9733,6.9587,6.9587,7.0244,7.0667,7.0667,7.0667,7.0667,7.0667,7.0667,7.0667,7.0667,7.0667,7.0667,7.0667,7.0744,7.0783,7.0783,7.086,7.0898,5.3885,5.5091,5.5794,5.5658,5.5365,5.4698,5.3078,0.0,0.0,4.9953,5.0325,5.0949,5.1431,5.2706,0.0,0.0,0.0,0.0,0.0,0.0,0.0,0.0,0.0,0.0,0.0,0.0,0.0,0.0,0.0,0.0,6.6739,6.6292,6.6029,6.6029,6.6476,6.6739,6.6739,6.6739,6.6739,6.6739,6.6739,6.6739,6.6739,6.6739,6.6739,6.6739,6.6739,0.0,0.0,6.6029,6.5735,6.5362,6.5845,6.6029,6.6072,6.6549,6.6739,6.6739,6.6739,6.6739,6.6739,6.6739,6.6189,6.5521,6.5368,6.5074,6.4891,6.5221,6.5288,6.5398,6.5882,6.6366,6.6739,6.6739,6.6739,6.688,6.735,6.7717,6.8091,6.8568,6.8942,6.9214,6.9414,6.9725,7.0024,7.0227,7.0535,7.0753,7.0753,7.0942,7.1075,7.1075,7.0699,7.0437,7.0437,7.0706,7.0898,7.0898,7.0898,7.0898,7.0898,7.1398,7.1671,7.1671,7.2206,7.2472,7.2472,7.2472,7.2472,7.2472,7.2472,7.2472,5.4258,5.5757,5.6706,5.6387,5.5952,5.5254,0.0,0.0,5.1096,5.0834,5.0986,5.1316,5.1908,5.2858,5.399,5.5365,0.0,5.6785,0.0,0.0,0.0,0.0,0.0,0.0,0.0,0.0,0.0,0.0,0.0,0.0,0.0,6.7143,6.6849,6.6849,6.7407,6.77,6.77,6.77,6.77,6.77,6.77,6.77,6.77,6.77,6.77,6.77,0.0,0.0,0.0,6.6849,6.6512,6.6065,6.6629,6.6849,6.6923,6.748,6.77,6.77,6.77,6.77,6.77,6.77,6.7333,6.6739,6.6182,6.5845,6.5698,6.5925,6.5992,6.6145,6.6703,6.7437,6.8061,6.8061,6.8244,6.8575,6.9119,6.9259,6.9412,7.0007,7.0117,7.0117,7.0117,7.0407,7.0645,7.0645,7.0962,7.1246,7.1246,7.1362,7.1463,7.1463,7.1279,7.1147,7.1147,7.1302,7.1412,7.1412,7.1412,7.1412,7.1412,7.1835,7.2137,7.2298,7.275,7.3053,7.3215,7.3049,7.3049,7.3212,7.3049,7.319,5.4924,5.6161,5.7,5.7776,5.6791,5.5401,0.0,5.3157,5.1762,5.0949,5.1431,5.1982,5.1987,5.3303,5.4662,5.5475,5.6271,0.0,0.0,0.0,0.0,0.0,0.0,0.0,0.0,0.0,0.0,0.0,0.0,0.0,0.0,6.77,6.77,6.77,6.77,6.77,6.77,6.77,6.77,6.77,6.77,6.77,6.77,6.77,6.77,0.0,0.0,0.0,0.0,6.77,6.7664,6.7664,6.7664,6.77,6.77,6.77,6.77,6.77,6.77,6.77,6.77,6.77,6.77,6.77,6.7664,6.7106,6.6659,6.7437,6.7664,6.7664,6.77,6.8281,6.8892,6.8892,6.9486,7.008,7.0073,7.0073,7.0073,7.0117,7.0117,7.0117,7.0117,7.0087,7.0124,7.0124,7.0094,7.0138,7.0138,7.058,7.0902,7.0902,7.1391,7.1696,7.1696,7.2234,7.2599,7.2599,7.2599,7.2599,7.2599,7.2031,7.2001,7.2585,7.2021,7.2011,7.2594,7.1996,7.2044,7.2585,7.1996,7.249,5.2789,5.452,5.591,5.5611,5.517,5.4698,5.4473,5.3157,5.2092,5.237,5.2197,5.2165,5.2706,5.3697,5.484,5.6198,5.7116,0.0,0.0,0.0,0.0,0.0,0.0,0.0,0.0,0.0,0.0,0.0,0.0,0.0,0.0,6.77,6.77,6.77,6.77,6.77,6.77,6.77,6.77,6.77,6.77,6.77,6.77,6.77,0.0,0.0,0.0,0.0,0.0,6.77,6.77,6.77,6.77,6.77,6.77,6.77,6.77,6.77,6.77,6.77,6.77,6.77,6.77,6.77,6.77,6.7517,6.7363,6.7627,6.8098,6.8531,6.8531,6.9119,6.9706,6.9706,6.9926,7.0257,7.08,7.091,7.1094,7.1615,7.1725,7.1725,7.1725,7.1725,7.1725,7.1725,7.1725,7.1725,7.1725,7.1878,7.198,7.198,7.214,7.2118,7.1729,7.1884,7.1986,7.1986,7.1986,7.1986,7.1986,7.2384,7.268,7.2856,7.3268,7.3575,7.3752,7.357,7.3575,7.3757,7.3558,7.3739,0.0,5.3781,5.5102,5.4919,5.4625,5.4399,5.4399,5.3371,5.2595,5.3104,5.2816,5.2601,5.3104,5.4106,5.5176,5.6198,5.7262,0.0,0.0,0.0,0.0,0.0,0.0,0.0,0.0,0.0,0.0,0.0,0.0,0.0,0.0,6.8031,6.7847,6.8134,6.7841,6.77,6.77,6.77,6.77,6.77,6.77,6.77,6.77,6.77,0.0,0.0,0.0,0.0,0.0,6.77,6.77,6.77,6.77,6.77,6.77,6.77,6.77,6.77,6.77,6.77,6.7737,6.8061,6.8355,6.8618,6.8618,6.8391,6.8134,6.8134,6.8715,6.9339,6.9339,6.9963,7.0543,7.0543,7.077,7.1138,7.1637,7.1747,7.1901,7.2415,7.2488,7.2488,7.2488,7.2488,7.2488,7.2488,7.2488,7.2488,7.2488,7.2488,7.2488,7.2488,7.2488,7.2369,7.2024,7.2203,7.234,7.234,7.234,7.234,7.234,7.2645,7.2932,7.314,7.3449,7.3717,7.3957,7.3957,7.3835,7.362,7.4091,7.4195,0.0,5.3586,5.4399,5.5108,5.4772,5.4326,5.4326,5.3733,0.0,5.3214,5.3214,5.3214,5.3287,5.4546,5.5622,5.5768,5.7085,0.0,0.0,0.0,0.0,0.0,0.0,0.0,0.0,0.0,0.0,0.0,0.0,0.0,0.0,6.8685,6.8208,6.8965,6.8244,6.7811,6.77,6.77,6.77,6.77,6.7774,6.7811,6.7811,6.7811,0.0,0.0,0.0,0.0,0.0,6.77,6.77,6.77,6.77,6.77,6.77,6.77,6.7737,6.7811,6.7811,6.7811,6.7987,6.8745,6.9486,7.0117,7.0117,6.9596,6.9002,6.9002,6.9552,7.0183,7.0183,7.0763,7.138,7.138,7.1975,7.2488,7.2488,7.2488,7.2488,7.2488,7.2488,7.2488,7.2488,7.2488,7.2488,7.2488,7.2488,7.2488,7.2488,7.2488,7.2488,7.2488,7.2488,7.2488,7.2488,7.3024,7.3334,7.3334,7.3334,7.3334,7.3334,7.2796,7.2754,7.3322,7.2782,7.2768,7.3334,7.3334,7.3064,7.2539,7.3633,7.3885,5.0073,0.0,5.2459,5.2013,5.2706,5.3471,0.0,5.3324,5.3214,0.0,0.0,0.0,0.0,5.4919,5.5989,0.0,0.0,0.0,0.0,0.0,0.0,0.0,0.0,0.0,0.0,0.0,0.0,0.0,0.0,0.0,0.0,6.975,6.9603,6.9816,6.9639,6.8942,6.77,6.77,6.77,6.77,6.8311,6.8605,6.8605,6.8605,0.0,0.0,0.0,0.0,6.77,6.77,6.77,6.77,6.77,6.77,6.77,6.77,6.8098,6.8605,6.8605,6.9009,6.9566,6.9743,6.9963,7.0117,7.0117,6.9963,6.9816,6.9816,7.0396,7.102,7.102,7.1608,7.2232,7.2232,7.2342,7.2488,7.2488,7.2488,7.2488,7.2488,7.2488,7.2488,7.2488,7.2488,7.2488,7.2488,7.2488,7.2488,7.2488,7.2488,7.2488,7.2488,7.2488,7.2488,7.2488,7.2623,7.2728,7.2728,7.2728,7.2728,7.2728,7.2589,7.2574,7.2721,7.2582,7.2582,7.2728,7.2728,7.2637,7.2503,7.2781,7.2834,4.9344,5.0775,5.1982,5.1935,5.2816,5.3663,5.3327,0.0,0.0,0.0,0.0,0.0,0.0,0.0,0.0,0.0,0.0,0.0,0.0,0.0,0.0,0.0,0.0,0.0,0.0,0.0,0.0,0.0,0.0,0.0,0.0,7.0513,7.0257,7.066,7.0293,6.9676,6.8795,6.8795,6.8795,6.8795,6.9229,6.9449,6.9449,6.9075,6.8892,0.0,0.0,0.0,6.77,6.77,6.77,6.77,6.77,6.7921,6.8244,6.8244,6.8752,6.9449,6.9449,7.0,7.0653,7.0653,7.0917,7.1211,7.1211,7.1211,7.1138,7.077,7.1241,7.1865,7.1865,7.2158,7.2488,7.2488,7.2488,7.2488,7.2488,7.2488,7.2488,7.2488,7.2789,7.3046,7.3046,7.3377,7.359,7.359,7.359,7.3479,7.3083,7.3369,7.3443,7.3083,7.3046,7.3046,7.3046,7.2716,7.2488,7.2488,7.2488,7.2488,7.2488,7.2488,7.2488,7.2488,7.2488,7.2488,7.2488,7.2862,7.3031,7.3075,7.3441,7.361,4.9377,5.0779,5.2134,5.272,5.3531,5.4009,5.3147,0.0,0.0,0.0,0.0,0.0,0.0,0.0,0.0,0.0,0.0,0.0,0.0,0.0,0.0,0.0,0.0,0.0,0.0,0.0,0.0,0.0,0.0,0.0,0.0,7.1211,7.077,7.1454,7.08,7.0477,7.0477,7.022,7.0117,7.0117,7.022,7.0293,7.0257,6.9589,6.9185,0.0,0.0,0.0,6.77,6.77,6.77,6.77,6.7847,6.8311,6.8892,6.9038,6.9589,7.0293,7.0403,7.0917,7.149,7.149,7.1938,7.2488,7.2488,7.2488,7.2342,7.1674,7.1975,7.2488,7.2488,7.2488,7.2488,7.2488,7.2488,7.2488,7.2488,7.2606,7.2679,7.2679,7.334,7.3891,7.3891,7.4434,7.4903,7.4903,7.4903,7.4654,7.3971,7.4478,7.4654,7.3964,7.3891,7.3891,7.3891,7.3266,7.2855,7.2855,7.2753,7.2753,7.2855,7.2753,7.2745,7.2855,7.2753,7.2745,7.2855,7.3559,7.3882,7.3897,7.4566,7.4889,4.9371,5.0787,5.1863,5.1373,5.2379,5.3129,5.1739,0.0,0.0,0.0,0.0,0.0,0.0,0.0,0.0,0.0,0.0,0.0,0.0,0.0,0.0,0.0,0.0,0.0,0.0,0.0,0.0,0.0,0.0,0.0,0.0,7.2275,7.2195,7.2305,7.2195,7.2129,7.2129,7.077,7.0117,7.0117,7.08,7.1123,7.1123,7.0977,7.058,0.0,0.0,6.8311,6.77,6.77,6.77,6.7774,6.8458,6.8781,6.8965,6.9669,7.044,7.1197,7.1908,7.2195,7.2305,7.2305,7.2415,7.2488,7.2488,7.2488,7.2452,7.2342,7.2415,7.2488,7.2488,7.2488,7.2488,7.2488,7.2488,7.2488,7.2488,7.3046,7.3531,7.3531,7.4184,7.4727,7.4727,7.483,7.4903,7.4903,7.4903,7.4874,7.4727,7.483,7.483,7.4727,7.4727,7.4727,7.4727,7.461,7.4544,7.4544,7.3891,7.3817,7.4507,7.3891,7.3854,7.45,7.3854,7.3854,7.4544,7.4646,7.472,7.4705,7.4849,7.4891,4.9024,5.0596,5.1928,5.123,5.2532,5.3662,0.0,0.0,0.0,0.0,0.0,0.0,0.0,0.0,0.0,0.0,0.0,0.0,0.0,0.0,0.0,0.0,0.0,0.0,0.0,0.0,0.0,0.0,0.0,0.0,0.0,0.0,7.2488,7.2488,7.2488,7.2488,7.2488,7.1762,7.1394,7.1394,7.1754,7.1938,7.1938,7.149,7.1087,7.069,0.0,6.9339,6.9015,6.9015,6.9015,6.9015,6.9412,6.9809,7.0279,7.1094,7.1615,7.2011,7.2378,7.2488,7.2488,7.2488,7.2488,7.2488,7.2488,7.2488,7.2488,7.2488,7.2488,7.2488,7.2488,7.2488,7.2488,7.2488,7.2826,7.3156,7.3156,7.378,7.4368,7.4368,7.4984,7.5535,7.5535,7.5894,7.6188,7.6188,7.6188,7.6041,7.5608,7.5939,7.6041,7.5608,7.5535,7.5535,7.5535,7.5168,7.4903,7.4903,7.4544,7.4507,7.4867,7.4544,7.4507,7.4903,7.4544,7.4529,7.4882,7.5353,7.5559,7.5566,7.5982,7.6197,4.9157,5.0339,5.1387,5.124,0.0,0.0,0.0,0.0,0.0,0.0,0.0,0.0,0.0,0.0,0.0,0.0,0.0,0.0,0.0,0.0,0.0,0.0,0.0,0.0,0.0,0.0,0.0,0.0,0.0,0.0,0.0,0.0,7.2488,7.2488,7.2488,7.2488,7.2488,7.2488,7.2488,7.2488,7.2488,7.2488,7.2496,7.1857,7.149,7.127,7.0653,7.0257,7.0117,7.0117,7.0117,7.0117,7.0293,7.0874,7.1674,7.2268,7.2488,7.2488,7.2488,7.2488,7.2488,7.2488,7.2488,7.2488,7.2488,7.2488,7.2532,7.2716,7.2789,7.2789,7.2789,7.2789,7.2826,7.3002,7.3523,7.3964,7.3964,7.4617,7.5168,7.5168,7.5828,7.6379,7.6379,7.6885,7.7281,7.7281,7.7281,7.7069,7.6452,7.6922,7.7069,7.6452,7.6379,7.6379,7.6379,7.5828,7.5454,7.5454,7.527,7.5278,7.5454,7.527,7.5278,7.5454,7.5278,7.5264,7.5455,7.6065,7.6375,7.6398,7.7021,7.7281,5.0341,5.0019,4.9405,5.0835,0.0,0.0,0.0,0.0,0.0,0.0,0.0,0.0,0.0,0.0,0.0,0.0,0.0,0.0,0.0,0.0,0.0,0.0,0.0,0.0,0.0,0.0,0.0,0.0,0.0,0.0,0.0,0.0,0.0,7.2488,7.2488,7.2488,7.2488,7.2488,7.2488,7.2488,7.2488,7.2488,7.2488,7.2452,7.2011,7.1307,7.1233,7.08,7.0117,7.0117,7.0117,7.0183,7.091,7.1718,7.2415,7.2496,7.2488,7.2488,7.2488,7.2488,7.2488,7.2488,7.2488,7.2488,7.2488,7.2488,7.2679,7.3384,7.3604,7.3604,7.3604,7.3604,7.378,7.4544,7.4757,7.4801,7.4801,7.5461,7.6019,7.6019,7.6665,7.7215,7.7215,7.7244,7.7281,7.7281,7.7281,7.7281,7.7208,7.7244,7.7281,7.7208,7.7215,7.7215,7.7215,7.7171,7.7134,7.7134,7.6416,7.6342,7.7105,7.6416,7.6379,7.7098,7.6394,7.6365,7.7142,7.7186,7.7194,7.7209,7.7252,7.7281,4.8851,4.9369,4.9744,5.0375,0.0,0.0,0.0,0.0,0.0,0.0,0.0,0.0,0.0,0.0,0.0,0.0,0.0,0.0,0.0,0.0,0.0,0.0,0.0,0.0,0.0,0.0,0.0,0.0,0.0,0.0,0.0,0.0,0.0,7.0742,7.1302,7.1619,7.1619,7.2219,7.2488,7.2488,7.2488,7.2488,7.2488,7.2488,7.2342,7.2048,7.2048,7.1865,7.1578,7.1578,7.1578,7.1615,7.1938,7.2232,7.2488,7.2488,7.2488,7.2488,7.2488,7.2488,7.2488,7.2488,7.2488,7.2606,7.3083,7.323,7.3413,7.4221,7.4434,7.4434,7.4434,7.4434,7.4507,7.4837,7.5278,7.5645,7.5645,7.6269,7.6848,7.6848,7.7105,7.7281,7.7281,7.7281,7.7281,7.7281,7.7281,7.7281,7.7281,7.7281,7.7281,7.7281,7.7281,7.7281,7.7281,7.7281,7.7281,7.7281,7.6995,7.6995,7.7289,7.6995,7.6995,7.7281,7.7003,7.7003,7.7281,7.7281,7.7281,7.7281,7.7281,7.7281,4.8504,4.9323,5.0143,0.0,0.0,0.0,0.0,0.0,0.0,0.0,0.0,0.0,0.0,0.0,0.0,0.0,0.0,0.0,0.0,0.0,0.0,0.0,0.0,0.0,0.0,0.0,0.0,0.0,0.0,0.0,0.0,0.0,0.0,0.0,7.0767,7.1239,7.1542,7.2189,7.2488,7.2488,7.2488,7.2488,7.2488,7.2488,7.2488,7.2488,7.2488,7.2488,7.2488,7.2488,7.2488,7.2488,7.2488,7.2488,7.2488,7.2488,7.2488,7.2488,7.2488,7.2488,7.2532,7.2789,7.2899,7.3046,7.3817,7.4074,7.4258,7.5058,7.5278,7.5351,7.5601,7.5454,7.5351,7.5601,7.6085,7.6489,7.6489,7.6922,7.7281,7.7281,7.7281,7.7281,7.7281,7.7281,7.7281,7.7281,7.7281,7.7281,7.7281,7.7281,7.7281,7.7281,7.7281,7.7281,7.7281,7.7281,7.7281,7.7281,7.7281,7.7281,7.7281,7.7281,7.7281,7.7281,7.7281,7.7281,7.7281,7.7281,7.7281,7.7281,7.7281,7.7281,4.9872,5.0075,0.0,0.0,0.0,0.0,0.0,0.0,0.0,0.0,0.0,0.0,0.0,0.0,0.0,0.0,0.0,0.0,0.0,0.0,0.0,0.0,0.0,0.0,0.0,0.0,0.0,0.0,0.0,0.0,0.0,0.0,0.0,0.0,7.1087,7.1519,7.2452,7.2467,7.2467,7.2467,7.2467,7.2474,7.2488,7.2488,7.2488,7.2488,7.2488,7.2488,7.2488,7.2488,7.2488,7.2488,7.2488,7.2488,7.2488,7.2496,7.2496,7.2496,7.2525,7.2525,7.2642,7.3457,7.3714,7.3861,7.4654,7.4903,7.5094,7.5909,7.6093,7.6269,7.7105,7.6709,7.6306,7.7105,7.7281,7.7281,7.7281,7.7281,7.7281,7.7281,7.7281,7.7281,7.7281,7.7281,7.7281,7.7281,7.7281,7.7281,7.7281,7.7281,7.7281,7.7281,7.7281,7.7281,7.7281,7.7281,7.7281,7.7281,7.7281,7.7281,7.7281,7.7281,7.7281,7.7281,7.7281,7.7281,7.7281,7.7281,7.7281,7.7281,7.7281,7.7281,4.8503,0.0,0.0,0.0,0.0,0.0,0.0,0.0,0.0,0.0,0.0,0.0,0.0,0.0,0.0,0.0,0.0,0.0,0.0,0.0,0.0,0.0,0.0,0.0,0.0,0.0,0.0,0.0,0.0,0.0,0.0,0.0,0.0,0.0,6.8723,6.9197,6.9477,7.0169,7.0526,7.0526,7.0526,7.1207,7.2488,7.2488,7.2488,7.2488,7.2488,7.2488,7.2488,7.2488,7.2488,7.2488,7.2488,7.2488,7.2569,7.312,7.3347,7.3413,7.3993,7.4177,7.425,7.447,7.4544,7.4691,7.5506,7.5718,7.5902,7.6702,7.6922,7.6995,7.7252,7.7134,7.6995,7.7244,7.7281,7.7281,7.7281,7.7281,7.7281,7.7281,7.7281,7.7281,7.7281,7.7281,7.7281,7.7281,7.7281,7.7281,7.7281,7.7281,7.7281,7.7281,7.7281,7.7281,7.7281,7.7281,7.7281,7.7281,7.7281,7.7281,7.7281,7.7281,7.7281,7.7281,7.7281,7.7281,7.7281,7.7281,7.7281,7.7281,7.7281,7.7281,4.9138,0.0,0.0,0.0,0.0,0.0,0.0,0.0,0.0,0.0,0.0,0.0,0.0,0.0,0.0,0.0,0.0,0.0,0.0,0.0,0.0,0.0,0.0,0.0,0.0,0.0,0.0,0.0,0.0,0.0,0.0,0.0,0.0,0.0,6.7891,6.8381,6.8789,6.9386,6.9708,6.9717,7.0093,7.0832,7.1922,7.1922,7.1922,7.1974,7.2321,7.2488,7.2488,7.2488,7.2488,7.2488,7.2488,7.2716,7.3046,7.3531,7.3898,7.4258,7.4727,7.4903,7.494,7.5278,7.5388,7.5535,7.6342,7.6599,7.6673,7.7179,7.7281,7.7281,7.7281,7.7281,7.7281,7.7281,7.7281,7.7281,7.7281,7.7281,7.7281,7.7281,7.7281,7.7281,7.7281,7.7281,7.7281,7.7281,7.7281,7.7281,7.7281,7.7281,7.7281,7.7281,7.7281,7.7281,7.7281,7.7281,7.7281,7.7281,7.7281,7.7281,7.7281,7.7281,7.7281,7.7281,7.7281,7.7281,7.7281,7.7281,7.7281,7.7281,7.7281,7.7281,5.0905,0.0,0.0,0.0,0.0,0.0,0.0,0.0,0.0,0.0,0.0,0.0,0.0,0.0,0.0,0.0,0.0,0.0,0.0,0.0,0.0,0.0,0.0,0.0,0.0,0.0,0.0,0.0,0.0,0.0,0.0,0.0,0.0,6.8048,6.8078,6.8496,6.9439,6.9448,6.9448,0.0,7.0288,7.0717,7.0734,7.1087,7.1223,7.1271,7.2116,7.2488,7.2488,7.2488,7.2488,7.2488,7.2488,7.2973,7.3714,7.3788,7.4331,7.5014,7.5087,7.5124,7.5234,7.5975,7.6195,7.635,7.7069,7.7281,7.7281,7.7281,7.7281,7.7281,7.7281,7.7281,7.7281,7.7281,7.7281,7.7281,7.7281,7.7281,7.7281,7.7281,7.7281,7.7281,7.7281,7.7281,7.7281,7.7281,7.7281,7.7281,7.7281,7.7281,7.7281,7.7281,7.7281,7.7281,7.7281,7.7281,7.7281,7.7281,7.7281,7.7281,7.7281,7.7281,7.7281,7.7281,7.7281,7.7281,7.7281,7.7281,7.7281,7.7281,7.7281,7.7281,5.0135,5.142,0.0,0.0,0.0,0.0,0.0,0.0,0.0,0.0,0.0,0.0,0.0,0.0,0.0,0.0,0.0,0.0,0.0,0.0,0.0,0.0,0.0,0.0,0.0,0.0,0.0,0.0,0.0,0.0,0.0,0.0,0.0,6.7078,6.7089,6.7202,6.7403,6.7403,6.7403,0.0,6.7612,6.7722,6.7841,7.0832,7.2211,7.2219,7.2423,7.2488,7.2488,7.2488,7.2488,7.2488,7.2488,7.2973,7.3788,7.4397,7.5131,7.5939,7.6555,7.6767,7.6804,7.6995,7.7032,7.7069,7.7244,7.7281,7.7281,7.7281,7.7281,7.7281,7.7281,7.7281,7.7281,7.7281,7.7281,7.7281,7.7281,7.7281,7.7281,7.7281,7.7281,7.7281,7.7281,7.7281,7.7281,7.7281,7.7281,7.7281,7.7281,7.7281,7.7281,7.7281,7.7281,7.7281,7.7281,7.7281,7.7281,7.7281,7.7281,7.7281,7.7281,7.7281,7.7281,7.7281,7.7281,7.7281,7.7281,7.7281,7.7281,7.7281,7.7281,7.7281,5.0338,0.0,0.0,5.7094,0.0,0.0,0.0,0.0,0.0,0.0,0.0,0.0,0.0,0.0,0.0,0.0,0.0,0.0,0.0,0.0,0.0,0.0,0.0,0.0,0.0,0.0,0.0,0.0,0.0,6.6802,6.6802,6.6802,6.6802,6.6802,6.6802,6.6802,6.6802,6.6802,6.6802,6.6802,6.7274,6.7732,6.8258,7.0237,7.1663,7.2488,7.2488,7.2488,7.2488,7.2488,7.2488,7.2488,7.2488,7.323,7.4331,7.4764,7.5637,7.6746,7.7134,7.7281,7.7281,7.7281,7.7281,7.7281,7.7281,7.7281,7.7281,7.7281,7.7281,7.7281,7.7281,7.7281,7.7281,7.7281,7.7281,7.7281,7.7281,7.7281,7.7281,7.7281,7.7281,7.7281,7.7281,7.7281,7.7281,7.7281,7.7281,7.7281,7.7281,7.7281,7.7281,7.7281,7.7281,7.7281,7.7281,7.7281,7.7281,7.7281,7.7281,7.7281,7.7281,7.7281,7.7281,7.7281,7.7281,7.7281,7.7281,7.7281,7.7281,7.7281,7.7281,7.7281,5.0423,0.0,5.5615,5.8346,6.0274,0.0,0.0,0.0,0.0,0.0,0.0,0.0,0.0,0.0,0.0,0.0,0.0,0.0,0.0,0.0,0.0,0.0,0.0,0.0,0.0,0.0,0.0,0.0,0.0,6.6802,6.6802,6.6802,6.6802,6.6802,6.6802,6.6802,6.6802,6.6802,6.6802,6.6812,6.7592,6.8493,6.9422,6.9422,7.0392,7.2026,7.2197,7.2255,7.227,7.2438,7.2488,7.2496,7.2642,7.3626,7.4903,7.5058,7.6041,7.7281,7.7281,7.7281,7.7281,7.7281,7.7281,7.7281,7.7281,7.7281,7.7281,7.7281,7.7281,7.7281,7.7281,7.7281,7.7281,7.7281,7.7281,7.7281,7.7281,7.7281,7.7281,7.7281,7.7281,7.7281,7.7281,7.7281,7.7281,7.7281,7.7281,7.7281,7.7281,7.7281,7.7281,7.7281,7.7281,7.7281,7.7281,7.7281,7.7281,7.7281,7.7281,7.7281,7.7281,7.7281,7.7281,7.7281,7.7281,7.7281,7.7281,7.7281,7.7281,7.7281,7.7281,7.7281,4.8875,0.0,5.69,0.0,6.0655,6.2661,0.0,0.0,0.0,0.0,0.0,0.0,0.0,0.0,0.0,0.0,0.0,0.0,0.0,0.0,0.0,0.0,0.0,0.0,0.0,0.0,0.0,0.0,6.6802,6.6802,6.6802,6.6802,6.6802,6.6802,6.6802,6.6802,6.6802,6.6802,6.6802,6.6802,6.6915,6.7471,6.8391,6.8391,6.9021,7.0127,7.0914,7.1279,7.1342,7.2145,7.2488,7.2569,7.3266,7.4111,7.4977,7.5682,7.6526,7.7281,7.7281,7.7281,7.7281,7.7281,7.7281,7.7281,7.7281,7.7281,7.7281,7.7281,7.7281,7.7281,7.7281,7.7281,7.7281,7.7281,7.7281,7.7281,7.7281,7.7281,7.7281,7.7281,7.7281,7.7281,7.7281,7.7281,7.7281,7.7281,7.7281,7.7281,7.7281,7.7281,7.7281,7.7281,7.7281,7.7281,7.7281,7.7281,7.7281,7.7281,7.7281,7.7281,7.7281,7.7281,7.7281,7.7281,7.7281,7.7281,7.7281,7.7281,7.7281,7.7281,7.7281,7.7281,5.0676,5.3814,5.6756,0.0,6.0723,6.2279,6.4174,0.0,0.0,0.0,0.0,0.0,0.0,0.0,0.0,0.0,0.0,0.0,0.0,0.0,0.0,0.0,0.0,0.0,0.0,0.0,0.0,0.0,6.6802,6.6802,6.6802,6.6802,6.6802,6.6802,6.6802,6.6802,6.6802,6.6802,6.6802,6.6802,6.6802,6.7029,6.7424,6.7424,6.855,7.0518,7.0906,7.1417,7.1936,7.2321,7.2488,7.2562,7.3384,7.4184,7.5021,7.5799,7.6599,7.7281,7.7281,7.7281,7.7281,7.7281,7.7281,7.7281,7.7281,7.7281,7.7281,7.7281,7.7281,7.7281,7.7281,7.7281,7.7281,7.7281,7.7281,7.7281,7.7281,7.7281,7.7281,7.7281,7.7281,7.7281,7.7281,7.7281,7.7281,7.7281,7.7281,7.7281,7.7281,7.7281,7.7281,7.7281,7.7281,7.7281,7.7281,7.7281,7.7281,7.7281,7.7281,7.7281,7.7281,7.7281,7.7281,7.7281,7.7281,7.7281,7.7281,7.7281,7.7281,7.7281,7.7281,7.7281,0.0,0.0,5.5259,5.8244,6.0013,6.1569,0.0,0.0,0.0,0.0,0.0,0.0,0.0,0.0,0.0,0.0,0.0,0.0,0.0,0.0,0.0,0.0,0.0,0.0,0.0,0.0,0.0,0.0,6.6802,6.6802,6.6802,6.6802,6.6802,6.6802,6.6802,6.6802,6.6802,6.6802,6.6802,6.6802,6.6802,6.6802,6.6802,6.6802,6.8112,7.0381,7.0643,7.1263,7.2145,7.2409,7.2606,7.2899,7.3707,7.4515,7.5315,7.6122,7.6775,7.7281,7.7281,7.7281,7.7281,7.7281,7.7281,7.7281,7.7281,7.7281,7.7281,7.7281,7.7281,7.7281,7.7281,7.7281,7.7281,7.7281,7.7281,7.7281,7.7281,7.7281,7.7281,7.7281,7.7281,7.7281,7.7281,7.7281,7.7281,7.7281,7.7281,7.7281,7.7281,7.7281,7.7281,7.7281,7.7281,7.7281,7.7281,7.7281,7.7281,7.7281,7.7281,7.7281,7.7281,7.7281,7.7281,7.7281,7.7281,7.7281,7.7281,7.7281,7.7281,7.7281,7.7281,7.7281,0.0,4.9781,0.0,5.5192,5.8075,6.0757,0.0,0.0,0.0,0.0,0.0,0.0,0.0,0.0,0.0,0.0,0.0,0.0,0.0,0.0,0.0,0.0,0.0,0.0,0.0,0.0,0.0,0.0,6.6802,6.6802,6.6802,6.6802,6.6802,6.6802,6.6802,6.6802,6.6802,6.6802,6.6802,6.6802,6.6802,6.6802,6.6802,6.6802,6.7373,6.8401,6.935,7.0315,7.1239,7.2116,7.2936,7.3714,7.4507,7.5315,7.613,7.6922,7.7244,7.7281,7.7281,7.7281,7.7281,7.7281,7.7281,7.7281,7.7281,7.7281,7.7281,7.7281,7.7281,7.7281,7.7281,7.7281,7.7281,7.7281,7.7281,7.7281,7.7281,7.7281,7.7281,7.7281,7.7281,7.7281,7.7281,7.7281,7.7281,7.7281,7.7281,7.7281,7.7281,7.7281,7.7281,7.7281,7.7281,7.7281,7.7281,7.7281,7.7281,7.7281,7.7281,7.7281,7.7281,7.7281,7.7281,7.7281,7.7281,7.7281,7.7281,7.7281,7.7281,7.7281,7.7281,7.7281,0.0,0.0,5.181,5.4363,5.6867,5.9278,6.1559,6.3386,6.4884,6.5899,0.0,0.0,0.0,0.0,0.0,0.0,0.0,0.0,0.0,0.0,0.0,0.0,0.0,0.0,0.0,0.0,0.0,0.0,0.0,6.6802,6.6802,6.6802,6.6802,6.6802,6.6802,6.6802,6.6802,6.6802,6.6802,6.6802,6.6802,6.6802,6.6802,6.6802,6.7301,6.8208,6.8581,6.9305,7.0239,7.056,7.1532,7.2868,7.3675,7.4879,7.6203,7.6995,7.7281,7.7281,7.7281,7.7281,7.7281,7.7281,7.7281,7.7281,7.7281,7.7281,7.7281,7.7281,7.7281,7.7281,7.7281,7.7281,7.7281,7.7281,7.7281,7.7428,7.7994,7.7693,7.7281,7.7281,7.7281,7.7281,7.7281,7.7281,7.7281,7.7281,7.7281,7.7281,7.7281,7.7281,7.7281,7.7281,7.7281,7.7281,7.7281,7.7281,7.7281,7.7281,7.7281,7.7281,7.7281,7.7281,7.7281,7.7281,7.7281,7.7281,7.7281,7.7281,7.7281,7.7281,7.7281,7.7281,4.6737,0.0,0.0,0.0,5.5141,5.6934,6.0486,0.0,6.3531,6.503,0.0,0.0,0.0,0.0,0.0,0.0,0.0,0.0,0.0,0.0,0.0,0.0,0.0,0.0,0.0,0.0,0.0,0.0,0.0,0.0,6.6802,6.6802,6.6802,6.6802,6.6802,6.6802,6.6802,6.6802,6.6802,6.6802,6.6802,6.6802,6.6802,6.6802,6.714,6.7727,6.7727,6.8483,6.9734,7.0343,7.1411,7.2813,7.3946,7.5265,7.6562,7.7105,7.7281,7.7281,7.7281,7.7281,7.7281,7.7281,7.7281,7.7281,7.7281,7.7281,7.7281,7.7281,7.7281,7.7281,7.7281,7.7281,7.7362,7.7656,7.7737,7.7957,7.8809,7.8332,7.781,7.8104,7.7913,7.781,7.8104,7.7656,7.7399,7.7693,7.7737,7.7737,7.7737,7.7957,7.8141,7.8141,7.7913,7.7737,7.7737,7.7472,7.7281,7.7281,7.7281,7.7281,7.7281,7.7281,7.7281,7.7281,7.7281,7.7281,7.7281,7.7281,7.7281,7.7281,7.7281,7.7281,0.0,0.0,0.0,0.0,0.0,0.0,5.9708,0.0,6.0858,6.3869,6.5097,0.0,0.0,0.0,0.0,0.0,0.0,0.0,0.0,0.0,0.0,0.0,0.0,0.0,0.0,0.0,0.0,0.0,6.6802,6.6802,6.6802,6.6802,6.6802,6.6802,6.6802,6.6802,6.6802,6.6802,6.6802,6.6802,6.6802,6.6802,6.6802,6.6836,6.6836,6.6836,6.6869,6.794,6.9805,7.1531,7.2722,7.3649,7.539,7.6576,7.7281,7.7281,7.7281,7.7281,7.7281,7.7281,7.7281,7.7281,7.7281,7.7281,7.7281,7.7281,7.7281,7.7281,7.7318,7.7355,7.7362,7.7362,7.7582,7.8442,7.8633,7.8854,7.9661,7.9221,7.889,7.9669,7.9184,7.889,7.9669,7.8434,7.7656,7.8516,7.8633,7.8633,7.8633,7.9331,7.9816,7.9816,7.9111,7.8626,7.8589,7.7847,7.7355,7.7355,7.7362,7.7362,7.7362,7.7362,7.7362,7.7362,7.7362,7.7362,7.7326,7.7318,7.7281,7.7281,7.7318,7.7355,4.5594,0.0,0.0,0.0,0.0,0.0,0.0,0.0,5.8558,6.1603,6.2787,6.3845,0.0,0.0,0.0,0.0,0.0,0.0,0.0,0.0,0.0,0.0,0.0,0.0,0.0,0.0,0.0,0.0,6.6802,6.6802,6.6802,6.6802,6.6802,6.6802,6.6802,6.6802,6.6802,6.6802,6.6802,6.6802,6.6802,6.6802,6.6836,6.7343,6.759,6.7624,6.8199,6.8778,6.9334,7.0008,7.1445,7.3405,7.4619,7.5975,7.7281,7.7281,7.7281,7.7281,7.7281,7.7281,7.7281,7.7281,7.7281,7.7281,7.7281,7.7281,7.7281,7.7281,7.7766,7.8369,7.8956,7.9111,7.9184,7.9404,7.9478,7.9698,8.0498,8.0498,8.0241,7.989,7.9633,7.9559,7.9779,7.9404,7.9184,7.9441,7.9478,7.9478,7.9478,7.9669,7.9816,7.9816,7.9596,7.9221,7.8662,7.8919,7.8846,7.8295,7.8779,7.9106,7.9106,7.9106,7.9106,7.9106,7.9106,7.8817,7.8233,7.7613,7.7281,7.7326,7.7957,7.8251,0.0,0.0,0.0,0.0,0.0,0.0,0.0,5.4465,0.0,0.0,6.1197,6.2516,0.0,0.0,0.0,0.0,0.0,0.0,0.0,0.0,0.0,0.0,0.0,0.0,0.0,6.7242,6.6802,6.6802,6.6802,6.6802,6.6802,6.6802,6.6802,6.6802,6.6802,6.6802,6.6802,6.6802,6.6802,6.6802,6.6802,6.6802,6.6836,6.7546,6.7895,6.7929,6.8741,6.9282,6.9617,7.0164,7.1275,7.2759,7.4474,7.5798,7.6736,7.7157,7.7281,7.7281,7.7281,7.7281,7.7281,7.7281,7.7281,7.7281,7.7281,7.7546,7.7839,7.7839,7.8442,7.9221,7.9669,7.9816,7.9882,8.0212,8.0285,8.0506,8.1342,8.1489,8.1342,8.0873,8.0542,8.0396,8.0726,8.0249,7.9918,8.0249,8.0285,8.0285,8.0285,8.0579,8.0799,8.0799,8.0506,8.0094,7.9653,7.9735,7.9617,7.9145,7.952,7.9816,7.9811,7.9803,7.9803,7.9803,7.9803,7.9562,7.9115,7.8239,7.7841,7.7847,7.8369,7.878,0.0,0.0,0.0,0.0,0.0,0.0,5.2951,5.3044,5.3374,0.0,5.9665,6.1153,6.2699,0.0,0.0,0.0,0.0,0.0,0.0,0.0,0.0,0.0,0.0,0.0,6.7861,6.7242,6.6802,6.6802,6.6802,6.6802,6.6802,6.6802,6.6802,6.6802,6.6802,6.6802,6.6802,6.6802,6.6802,6.6802,6.6802,6.6836,6.6937,6.7692,6.8064,6.8199,6.9011,6.9722,7.0385,7.1271,7.1725,7.2075,7.4654,7.5632,7.5727,7.6656,7.6972,7.698,7.7082,7.715,7.7165,7.725,7.7281,7.7281,7.7281,7.7921,7.8633,7.8809,7.9368,7.9963,8.0036,8.0073,8.0249,8.0975,8.1122,8.1342,8.2048,8.2194,8.2194,8.2194,8.1636,8.1379,8.2084,8.102,8.0322,8.1048,8.1122,8.1122,8.1122,8.1746,8.2194,8.2194,8.1562,8.1122,8.1004,8.0432,8.0049,7.9949,8.0005,8.0067,8.0072,8.0064,8.0064,8.0064,7.9983,7.9918,7.9947,7.9115,7.8748,7.8736,7.8809,7.9258,0.0,0.0,4.9593,0.0,0.0,0.0,0.0,5.0769,5.219,0.0,5.6181,5.7424,5.9487,6.1255,0.0,0.0,0.0,0.0,0.0,0.0,0.0,0.0,0.0,0.0,6.7963,6.7242,6.6802,6.6802,6.6802,6.6802,6.6802,6.6802,6.6802,6.6802,6.6802,6.6802,6.6802,6.6802,6.6802,6.6802,6.6802,6.7106,6.7726,6.8504,6.918,6.98,7.0522,7.0962,7.1086,7.1309,7.1861,7.2723,7.4085,7.4582,7.461,7.4794,7.4903,7.4985,7.5823,7.6077,7.6239,7.7035,7.7281,7.7281,7.7281,7.7921,7.8883,8.0167,8.0645,8.0901,8.157,8.1717,8.1754,8.1929,8.1974,8.2003,8.2158,8.2194,8.2194,8.2194,8.2076,8.2011,8.2158,8.1937,8.1791,8.1937,8.1974,8.1974,8.1974,8.2113,8.2194,8.2194,8.2048,8.1709,8.104,8.1452,8.1452,8.0812,8.1371,8.1738,8.1734,8.1734,8.1734,8.1734,8.111,8.0756,8.076,7.995,7.9585,7.9588,8.0241,8.0608,0.0,0.0,5.0007,4.9635,0.0,0.0,0.0,0.0,5.0837,5.3518,5.4355,5.5166,5.7018,0.0,5.9573,0.0,0.0,0.0,0.0,0.0,0.0,0.0,0.0,0.0,6.7377,6.7005,6.6802,6.6802,6.6802,6.6802,6.6802,6.6802,6.6802,6.6802,6.6802,6.6802,6.6802,6.6802,6.6802,6.6802,6.7174,6.7557,6.7929,6.9113,6.9868,7.024,7.0962,7.13,7.13,7.13,7.1612,7.2163,7.3176,7.3562,7.3621,7.411,7.4291,7.4432,7.5457,7.5787,7.5968,7.698,7.7281,7.7399,7.781,7.8801,8.0057,8.1269,8.1599,8.1672,8.2113,8.2194,8.2194,8.2194,8.2194,8.2194,8.2194,8.2194,8.2194,8.2194,8.2194,8.2194,8.2194,8.2194,8.2194,8.2194,8.2194,8.2194,8.2194,8.2194,8.2194,8.2194,8.2194,8.2039,8.1636,8.1974,8.2048,8.1636,8.1966,8.2194,8.2194,8.2194,8.2194,8.2194,8.1815,8.1607,8.1607,8.1175,8.0803,8.0419,8.0799,8.1232,0.0,0.0,0.0,0.0,0.0,4.9864,0.0,0.0,0.0,5.2562,0.0,0.0,0.0,0.0,0.0,0.0,0.0,0.0,0.0,0.0,0.0,0.0,0.0,0.0,0.0,6.6328,6.6352,6.6768,6.6396,6.6362,6.6768,6.6802,6.6802,6.6802,6.6802,6.6802,6.6802,6.6802,6.6869,6.7005,6.7624,6.8064,6.8379,6.9631,7.0274,7.0443,7.103,7.13,7.13,7.13,7.13,7.139,7.2183,7.2509,7.2613,7.3422,7.3729,7.3869,7.5084,7.551,7.5701,7.6925,7.7399,7.7729,7.8736,7.9984,8.1118,8.1724,8.1902,8.1824,8.1655,8.174,8.1902,8.1902,8.2071,8.2194,8.2194,8.2194,8.2194,8.2194,8.2194,8.2194,8.2194,8.2194,8.2194,8.2194,8.2194,8.2194,8.2194,8.2194,8.2194,8.2194,8.2194,8.2194,8.2194,8.2194,8.2194,8.2194,8.2194,8.2194,8.2194,8.2194,8.2194,8.2194,8.2194,8.2194,8.2194,8.2194,8.188,8.1243,8.124,8.1562,0.0,0.0,0.0,0.0,5.2055,0.0,0.0,0.0,0.0,5.1404,0.0,0.0,0.0,0.0,0.0,0.0,0.0,0.0,0.0,0.0,0.0,0.0,0.0,0.0,0.0,6.4647,6.4705,6.6656,6.4975,6.4728,6.67,6.6802,6.6802,6.6802,6.6802,6.6802,6.6802,6.6802,6.714,6.7793,6.7861,6.8616,6.9936,7.0105,7.0567,7.1165,7.1267,7.13,7.13,7.13,7.13,7.1312,7.1412,7.1468,7.1479,7.1612,7.1633,7.1917,7.3827,7.446,7.4766,7.6696,7.781,7.8736,8.0269,8.0857,8.0951,8.08,8.0786,8.055,7.9595,8.006,8.0786,8.0786,8.1499,8.2194,8.2194,8.2194,8.2194,8.2194,8.2194,8.2194,8.2194,8.2194,8.2194,8.2194,8.2194,8.2194,8.2194,8.2194,8.2194,8.2194,8.2194,8.2194,8.2194,8.2194,8.2194,8.2194,8.2194,8.2194,8.2194,8.2194,8.2194,8.2194,8.2194,8.2194,8.2194,8.2194,8.2158,8.2048,8.2048,8.2121,0.0,0.0,0.0,0.0,0.0,0.0,0.0,0.0,5.0668,0.0,0.0,0.0,0.0,0.0,0.0,0.0,0.0,0.0,0.0,0.0,0.0,0.0,0.0,0.0,0.0,0.0,0.0,0.0,6.4265,6.4265,6.6068,6.6565,6.6802,6.6802,6.6802,6.6802,6.6802,6.6802,6.7174,6.7895,6.8368,6.9147,7.0206,7.0635,7.1007,7.13,7.13,7.13,7.13,7.13,7.13,7.13,7.13,7.13,7.13,7.13,7.13,7.1501,7.2931,7.3432,7.375,7.5594,7.7065,7.8261,7.8953,7.9475,7.9833,7.9696,7.9688,7.9727,7.9889,8.0274,8.0759,8.1388,8.1885,8.2194,8.2194,8.2194,8.2194,8.2194,8.2194,8.2194,8.2194,8.2194,8.2194,8.2194,8.2194,8.2194,8.2194,8.2194,8.2194,8.2194,8.2194,8.2194,8.2194,8.2194,8.2194,8.2194,8.2194,8.2194,8.2194,8.2194,8.2194,8.2194,8.2194,8.2194,8.2194,8.2194,8.2194,8.2194,8.2194,8.2194,0.0,0.0,0.0,0.0,0.0,0.0,0.0,0.0,0.0,0.0,0.0,0.0,0.0,0.0,0.0,0.0,0.0,0.0,0.0,0.0,0.0,0.0,0.0,0.0,0.0,0.0,0.0,0.0,0.0,6.3284,6.5571,6.6203,6.6599,6.6791,6.6802,6.6802,6.6802,6.7005,6.7478,6.8233,6.9011,6.98,7.0511,7.1064,7.13,7.13,7.13,7.13,7.13,7.13,7.13,7.13,7.13,7.13,7.13,7.13,7.13,7.1468,7.2676,7.3399,7.4056,7.5586,7.6845,7.7846,7.8068,7.8548,7.8933,7.8628,7.8676,7.8966,7.9442,7.9947,8.0524,8.1291,8.1697,8.1855,8.1682,8.1618,8.1618,8.1618,8.1618,8.1618,8.1618,8.1937,8.2194,8.2194,8.2194,8.2194,8.2194,8.2194,8.2194,8.2194,8.2194,8.2194,8.2194,8.2194,8.2194,8.2194,8.2194,8.2194,8.2194,8.2194,8.2194,8.2194,8.2194,8.2194,8.2194,8.2194,8.2194,8.2194,8.2194,8.2194,0.0,0.0,0.0,0.0,0.0,0.0,0.0,0.0,5.2469,0.0,0.0,0.0,0.0,0.0,0.0,0.0,0.0,0.0,0.0,0.0,0.0,0.0,0.0,0.0,0.0,0.0,0.0,0.0,0.0,0.0,6.5469,6.5706,6.6068,6.6768,6.6802,6.6802,6.6802,6.7512,6.8267,6.9079,6.98,7.0534,7.1267,7.13,7.13,7.13,7.13,7.13,7.13,7.13,7.13,7.13,7.13,7.13,7.13,7.13,7.13,7.1536,7.3262,7.4986,7.6519,7.7427,7.7765,7.7952,7.8735,7.8958,7.8771,7.766,7.7924,7.8267,7.7283,7.8337,7.9645,7.969,8.0479,8.1022,8.0334,8.0167,8.0167,8.0167,8.0167,8.0167,8.0167,8.131,8.2194,8.2194,8.2194,8.2194,8.2194,8.2194,8.2194,8.2194,8.2194,8.2194,8.2194,8.2194,8.2194,8.2194,8.2194,8.2194,8.2194,8.2194,8.2194,8.2194,8.2194,8.2194,8.2194,8.2194,8.2194,8.2194,8.2194,8.2194,0.0,0.0,5.9302,5.5775,0.0,0.0,0.0,0.0,0.0,0.0,0.0,0.0,0.0,0.0,0.0,0.0,0.0,0.0,0.0,0.0,0.0,0.0,0.0,0.0,0.0,0.0,0.0,0.0,5.9868,0.0,0.0,6.5165,6.5808,6.6068,6.6531,6.6802,6.6802,6.7523,6.8301,6.9113,6.9868,7.0601,7.13,7.13,7.13,7.13,7.13,7.13,7.13,7.13,7.13,7.1368,7.1842,7.2011,7.2011,7.2011,7.2011,7.218,7.3265,7.434,7.5292,7.5589,7.6013,7.646,7.6723,7.6837,7.6747,7.6358,7.6822,7.7519,7.7858,7.8798,7.9793,8.0495,8.0954,8.1131,8.0883,8.0812,8.0812,8.0812,8.0434,8.009,8.009,8.0091,8.0312,8.1018,8.174,8.2194,8.2194,8.2194,8.2194,8.2194,8.2194,8.2194,8.2194,8.2194,8.2194,8.2194,8.2194,8.2194,8.2194,8.2194,8.2194,8.2194,8.2194,8.2194,8.2194,8.2194,8.2194,8.2194,8.2194,8.2194,5.9766,6.0917,0.0,5.8346,5.8152,0.0,0.0,0.0,0.0,0.0,0.0,0.0,0.0,0.0,0.0,0.0,0.0,0.0,0.0,0.0,0.0,0.0,0.0,0.0,0.0,0.0,5.7036,5.953,5.9032,0.0,0.0,0.0,6.5436,6.5672,6.643,6.6937,6.7174,6.7963,6.8707,6.9485,7.0229,7.0838,7.13,7.13,7.13,7.13,7.13,7.13,7.13,7.13,7.13,7.1368,7.2124,7.2394,7.2428,7.2699,7.2969,7.324,7.3713,7.4356,7.4987,7.4987,7.5303,7.5709,7.5709,7.5709,7.5743,7.6048,7.669,7.7493,7.8461,7.9266,8.0003,8.067,8.0849,8.078,8.0512,8.0442,8.0442,8.0442,8.007,7.9652,7.9384,7.9498,7.9704,7.9978,8.0614,8.1203,8.1568,8.1647,8.1765,8.2162,8.2194,8.2194,8.2194,8.2194,8.2333,8.2627,8.2623,8.2647,8.2647,8.2647,8.2484,8.2194,8.2194,8.2194,8.2194,8.2194,8.2194,8.2194,8.2194,8.2194]},{"header":{"parameterUnit":"m.s-1","parameterCategory":1,"la1":30.6,"la2":29.2853,"lo1":-89.7004,"lo2":-87.6739,"dy":0.0162,"dx":0.0183,"nx":112,"ny":82,"refTime":"2025-01-09T06:00:00:Z","depth":0,"parameterNumber":3,"parameterNumberName":"V-component_of_WINDS"},"data":[0.0,0.0,0.0,0.0,0.0,0.0,0.0,0.0,0.0,0.0,0.0,0.0,0.0,0.0,0.0,0.0,0.0,0.0,0.0,0.0,0.0,0.0,0.0,0.0,0.0,0.0,0.0,0.0,0.0,0.0,0.0,0.0,0.0,0.0,0.0,0.0,0.0,0.0,0.0,0.0,0.0,0.0,0.0,0.0,0.0,0.0,0.0,0.0,0.0,0.0,0.0,0.0,0.0,0.0,0.0,0.0,0.0,0.0,0.0,0.0,0.0,0.0,0.0,0.0,0.0,0.0,0.0,0.0,0.0,0.0,0.0,0.0,0.0,0.0,0.0,0.0,0.0,0.0,0.0,0.0,0.0,0.0,0.0,0.0,0.0,0.0,0.0,0.0,0.0,0.0,0.0,0.9022,0.9502,0.9805,0.9809,0.9807,0.9327,0.8211,0.0,0.0,0.0,0.0,0.0,0.0,0.0,0.0,0.0,0.0,0.0,0.0,0.0,0.0,0.0,0.0,0.0,0.0,0.0,0.0,0.0,0.0,0.0,0.0,0.0,0.0,0.0,0.0,0.0,0.0,0.0,0.0,0.0,0.0,0.0,0.0,0.0,0.0,0.0,0.0,0.0,0.0,0.0,0.0,0.0,0.0,0.0,0.0,0.0,0.0,0.0,0.0,0.0,0.0,0.0,0.0,0.0,0.0,0.0,0.0,0.0,0.0,0.0,0.0,0.0,0.0,0.0,0.0,0.0,0.0,0.0,0.0,0.0,0.0,0.0,0.0,0.0,0.0,0.0,0.0,0.0,0.0,0.0,0.0,0.0,0.0,0.0,0.0,0.0,0.0,0.0,0.0,0.0,0.0,0.0,0.0,0.0,0.0,0.0,0.0,0.0,0.0,0.0,0.0,0.8527,0.9558,0.9745,0.98,0.981,0.9799,0.9497,0.8815,0.0,0.0,0.0,0.0,0.0,0.0,0.0,0.0,0.0,0.0,0.0,0.0,0.0,0.0,0.0,0.0,0.0,0.0,0.0,0.0,0.0,0.0,0.0,0.0,0.0,0.0,0.0,0.0,0.0,0.0,0.0,0.0,0.0,0.0,0.0,0.0,0.0,0.0,0.0,0.0,0.0,0.0,0.0,0.0,0.0,0.0,0.0,0.0,0.0,0.0,0.0,0.0,0.0,0.0,0.0,0.0,0.0,0.0,0.0,0.0,0.0,0.0,0.0,0.0,0.0,0.0,0.0,0.0,0.0,0.0,0.0,0.0,0.0,0.0,0.0,0.0,0.0,0.0,0.0,0.0,0.0,0.0,0.0,0.0,0.0,0.0,0.0,0.0,0.0,0.0,0.0,0.0,0.0,0.0,0.0,0.0,0.0,0.0,0.0,0.0,0.0,0.0,0.0,0.8939,0.9181,0.9742,0.9801,0.9803,0.9804,0.9806,0.9539,0.8934,0.3297,0.0,0.0,0.0,0.0,0.0,0.0,0.0,0.0,0.0,0.0,0.0,0.0,0.0,0.0,0.0,0.0,0.0,0.0,0.0,0.0,0.0,0.0,0.0,0.0,0.0,0.0,0.0,0.0,0.0,0.0,0.0,0.0,0.0,0.0,0.0,0.0,0.0,0.0,0.0,0.0,0.0,0.0,0.0,0.0,0.0,0.0,0.0,0.0,0.0,0.0,0.0,0.0,0.0,0.0,0.0,0.0,0.0,0.0,0.0,0.0,0.0,0.0,0.0,0.0,0.0,0.0,0.0,0.0,0.0,0.0,0.0,0.0,0.0,0.0,0.0,0.0,0.0,0.0,0.0,0.0,0.0,0.0,0.0,0.0,0.0,0.0,0.0,0.0,0.0,0.0,0.0,0.0,0.0,0.0,0.0,0.0,0.0,0.0,0.0,0.0,0.0,0.0,0.9335,0.9802,0.9797,0.9799,0.9798,0.9804,0.9676,0.9391,0.8927,0.4486,0.0,0.0,0.0,0.0,0.0,0.0,0.0,0.0,0.0,0.0,0.0,0.0,0.0,0.0,0.0,0.0,0.0,0.0,0.0,0.0,0.0,0.0,0.0,0.0,0.0,0.0,0.0,0.0,0.0,0.0,0.0,0.0,0.0,0.0,0.0,0.0,0.0,0.0,0.0,0.0,0.0,0.0,0.0,0.0,0.0,0.0,0.0,0.0,0.0,0.0,0.0,0.0,0.0,0.0,0.0,0.0,0.0,0.0,0.0,0.0,0.0,0.0,0.0,0.0,0.0,0.0,0.0,0.0,0.0,0.0,0.0,0.0,0.0,0.0,0.0,0.0,0.0,0.0,0.0,0.0,0.0,0.0,0.0,0.0,0.0,0.0,0.0,0.0,0.0,0.0,0.0,0.0,0.0,0.0,0.0,0.0,0.0,0.0,0.0,0.0,0.0,0.0,0.9085,0.9798,0.9805,0.98,0.9798,0.9804,0.9276,0.8944,0.8906,0.7978,0.0,0.0,0.0,0.0,0.0,0.0,0.0,0.0,0.0,0.0,0.0,0.0,0.0,0.0,0.0,0.0,0.0,0.0,0.0,0.0,0.0,0.0,0.0,0.0,0.0,0.0,0.0,0.0,0.0,0.0,0.0,0.0,0.0,0.0,0.0,0.0,0.0,0.0,0.0,0.0,0.0,0.0,0.0,0.0,0.0,0.0,0.0,0.0,0.0,0.0,0.0,0.0,0.0,0.0,0.0,0.0,0.0,0.0,0.0,0.0,0.0,0.0,0.0,0.0,0.0,0.0,0.0,0.0,0.0,0.0,0.0,0.0,0.0,0.0,0.0,0.0,0.0,0.0,0.0,0.0,0.0,0.0,0.0,0.0,0.0,0.0,0.0,0.0,0.0,0.0,0.0,0.0,0.0,0.0,0.0,0.0,0.0,0.0,0.0,0.0,0.0,0.0,0.9293,0.9808,0.0,0.9807,0.9802,0.9805,0.9245,0.8745,0.8368,0.0,0.0,0.0,0.0,0.0,0.0,0.0,0.0,0.0,0.0,0.0,0.0,0.0,0.0,0.0,0.0,0.0,0.0,0.0,0.0,0.0,0.0,0.0,0.0,0.0,0.0,0.0,0.0,0.0,0.0,0.0,0.0,0.0,0.0,0.0,0.0,0.0,0.0,0.0,0.0,0.0,0.0,0.0,0.0,0.0,0.0,0.0,0.0,0.0,0.0,0.0,0.0,0.0,0.0,0.0,0.0,0.0,0.0,0.0,0.0,0.0,0.0,0.0,0.0,0.0,0.0,0.0,0.0,0.0,0.0,0.0,0.0,0.0,0.0,0.0,0.0,0.0,0.0,0.0,0.0,0.0,0.0,0.0,0.0,0.0,0.0,0.0,0.0,0.0,0.0,0.0,0.0,0.0,0.0,0.0,0.0,0.0,0.0,0.0,0.0,0.0,0.0,0.8818,0.9427,0.9794,0.0,0.9807,0.9797,0.9793,0.925,0.8716,0.8314,0.0,0.0,0.0,0.0,0.0,0.0,0.0,0.0,0.0,0.0,0.0,0.0,0.0,0.0,0.0,0.0,0.0,0.0,0.0,0.0,0.0,0.0,0.0,0.0,0.0,0.0,0.0,0.0,0.0,0.0,0.0,0.0,0.0,0.0,0.0,0.0,0.0,0.0,0.0,0.0,0.0,0.0,0.0,0.0,0.0,0.0,0.0,0.0,0.0,0.0,0.0,0.0,0.0,0.0,0.0,0.0,0.0,0.0,0.0,0.0,0.0,0.0,0.0,0.0,0.0,0.0,0.0,0.0,0.0,0.0,0.0,0.0,0.0,0.0,0.0,0.0,0.0,0.0,0.0,0.0,0.0,0.0,0.0,0.0,0.0,0.0,0.0,0.0,0.0,0.0,0.0,0.0,0.0,0.0,0.0,0.0,0.0,0.0,0.0,0.0,0.0,0.0,0.8818,0.9432,0.9797,0.9803,0.9807,0.9797,0.98,0.9243,0.8892,0.0,0.0,0.0,0.0,0.0,0.0,0.0,0.0,0.0,0.0,0.0,0.0,0.0,0.0,0.0,0.0,0.0,0.0,0.0,0.0,0.0,0.0,0.0,0.0,0.0,0.0,0.0,0.0,0.0,0.0,0.0,0.0,0.0,0.0,0.0,0.0,0.0,0.0,0.0,0.0,0.0,0.0,0.0,0.0,0.0,0.0,0.0,0.0,0.0,0.0,0.0,0.0,0.0,0.0,0.0,0.0,0.0,0.0,0.0,0.0,0.0,0.0,0.0,0.0,0.0,0.0,0.0,0.0,0.0,0.0,0.0,0.0,0.0,0.0,0.0,0.0,0.0,0.0,0.0,0.0,0.0,0.0,0.0,0.0,0.0,0.0,0.0,0.0,0.0,0.0,0.0,0.0,0.0,0.0,0.0,0.0,0.0,0.0,0.0,0.0,0.0,0.0,0.0,0.0,0.9432,0.9797,0.9803,0.9807,0.9808,0.9801,0.9251,0.8714,0.8288,0.0,0.0,0.0,0.0,0.0,0.0,0.0,0.0,0.0,0.0,0.0,0.0,0.0,0.0,0.0,0.0,0.0,0.0,0.0,0.0,0.0,0.0,0.0,0.0,0.0,0.0,0.0,0.0,0.0,0.0,0.0,0.0,0.0,0.0,0.0,0.0,0.0,0.0,0.0,0.0,0.0,0.0,0.0,0.0,0.0,0.0,0.0,0.0,0.0,0.0,0.0,0.0,0.0,0.0,0.0,0.0,0.0,0.0,0.0,0.0,0.0,0.0,0.0,0.0,0.0,0.0,0.0,0.0,0.0,0.0,0.0,0.0,0.0,0.0,0.0,0.0,0.0,0.0,0.0,0.0,0.0,0.0,0.0,0.0,0.0,0.0,0.0,0.0,0.0,0.0,0.0,0.0,0.0,0.0,0.0,0.0,0.0,0.0,0.0,0.0,0.0,0.0,0.8818,0.9432,0.9797,0.9803,0.9807,0.9798,0.9804,0.9463,0.8905,0.8052,0.0,0.0,0.0,0.0,0.0,0.0,0.0,0.0,0.0,0.0,0.0,0.0,0.0,0.0,0.0,0.0,0.0,0.0,0.0,0.0,0.0,0.0,0.0,0.0,0.0,0.0,0.0,0.0,0.0,0.0,0.0,0.0,0.0,0.0,0.0,0.0,0.0,0.0,0.0,0.0,0.0,0.0,0.0,0.0,0.0,0.0,0.0,0.0,0.0,0.0,0.0,0.0,0.0,0.0,0.0,0.0,0.0,0.0,0.0,0.0,0.0,0.0,0.0,0.0,0.0,0.0,0.0,0.0,0.0,0.0,0.0,0.0,0.0,0.0,0.0,0.0,0.0,0.0,0.0,0.0,0.0,0.0,0.0,0.0,0.0,0.0,0.0,0.0,0.0,0.0,0.0,0.0,0.0,0.0,0.0,0.0,0.0,0.0,0.0,0.0,0.0,0.0,0.8818,0.9432,0.9797,0.9803,0.9807,0.9798,0.9795,0.9802,0.9307,0.815,0.0,0.0,0.0,0.0,0.0,0.0,0.0,0.0,0.0,0.0,0.0,0.0,0.0,0.0,0.0,0.0,0.0,0.0,0.0,0.0,0.0,0.0,0.0,0.0,0.0,0.0,0.0,0.0,0.0,0.0,0.0,0.0,0.0,0.0,0.0,0.0,0.0,0.0,0.0,0.0,0.0,0.0,0.0,0.0,0.0,0.0,0.0,0.0,0.0,0.0,0.0,0.0,0.0,0.0,0.0,0.0,0.0,0.0,0.0,0.0,0.8001,0.0,0.0,0.0,0.0,0.0,0.0,0.0,0.0,0.0,0.0,0.0,0.0,0.0,0.0,0.0,0.0,0.0,0.0,0.0,0.0,0.0,0.0,0.0,0.0,0.0,0.0,0.0,0.0,0.0,0.0,0.0,0.0,0.0,0.0,0.0,0.0,0.0,0.0,0.0,0.0,0.0,0.8818,0.9432,0.9797,0.9803,0.9807,0.9793,0.9796,0.9801,0.9489,0.875,0.0,0.0,0.0,0.0,0.0,0.0,0.0,0.0,0.0,0.0,0.0,0.0,0.0,0.0,0.0,0.0,0.0,0.0,0.0,0.0,0.0,0.0,0.0,0.0,0.0,0.0,0.0,0.0,0.0,0.0,0.0,0.0,0.0,0.0,0.0,0.0,0.0,0.0,0.0,0.0,0.0,0.0,0.0,0.0,0.0,0.0,0.0,0.0,0.0,0.0,0.0,0.0,0.0,0.0,0.0,0.0,0.0,0.0,0.0,0.0,0.0,0.8164,0.0,0.0,0.0,0.0,0.0,0.0,0.0,0.0,0.0,0.0,0.0,0.0,0.0,0.0,0.0,0.0,0.0,0.0,0.0,0.0,0.0,0.0,0.0,0.0,0.0,0.0,0.0,0.0,0.0,0.0,0.0,0.0,0.0,0.0,0.0,0.0,0.0,0.0,0.0,0.0,0.8824,0.9423,0.9807,0.9802,0.9807,0.9807,0.9807,0.9802,0.9538,0.894,0.8338,0.0,0.0,0.0,0.0,0.0,0.0,0.0,0.0,0.0,0.0,0.0,0.0,0.0,0.0,0.0,0.0,0.0,0.0,0.0,0.0,0.0,0.0,0.0,0.0,0.0,0.0,0.0,0.0,0.0,0.0,0.0,0.0,0.0,0.0,0.0,0.0,0.0,0.0,0.0,0.0,0.0,0.0,0.0,0.0,0.0,0.0,0.0,0.0,0.0,0.0,0.0,0.0,0.0,0.9302,0.9377,0.9954,0.9952,0.9964,0.9906,0.8893,0.8694,0.9015,0.0,0.0,0.0,0.0,0.0,0.0,0.0,0.0,0.0,0.0,0.0,0.0,0.0,0.0,0.0,0.0,0.0,0.0,0.0,0.0,0.0,0.0,0.0,0.0,0.0,0.9057,0.8925,0.0,0.0,0.0,0.0,0.0,0.0,0.0,0.0,0.0,0.0,0.0,0.0,0.8975,0.9499,0.98,0.9808,0.9807,0.9807,0.9807,0.9798,0.9578,0.9091,0.8488,0.8101,0.0,0.0,0.0,0.0,0.0,0.0,0.0,0.0,0.0,0.0,0.0,0.0,0.0,0.0,0.0,0.0,0.0,0.0,0.0,0.0,0.0,0.0,0.0,0.0,0.0,0.0,0.0,0.0,0.0,0.0,0.0,0.0,1.3091,0.8547,0.0,0.0,0.0,0.0,0.0,0.0,0.0,0.0,0.0,0.0,0.0,0.0,0.0,0.0,0.8773,0.93,0.964,0.9802,0.9715,0.9997,1.0573,1.0575,1.0584,1.0568,1.0409,0.0,0.9631,0.9027,0.0,0.0,0.0,0.0,0.0,0.0,0.0,0.0,0.0,0.0,0.0,0.0,0.0,0.0,0.0,0.0,0.0,0.0,0.0,0.0,0.0,0.0,0.969,0.9673,0.968,0.9666,0.0,0.9147,0.8938,0.9452,0.0,0.0,0.0,0.0,0.0,0.0,0.0,0.0,0.9602,0.9757,0.98,0.9808,0.9807,0.9807,0.9807,0.9798,0.9765,0.9693,0.9112,0.8548,0.8021,0.7926,0.0,0.0,0.0,0.0,0.0,0.0,0.0,0.0,0.0,0.0,0.0,0.0,0.0,0.0,0.0,0.0,0.0,0.0,0.0,0.0,0.0,0.0,0.0,0.0,0.0,0.0,0.0,0.0,0.0,1.4941,1.596,1.366,1.3394,1.1967,0.0,0.0,0.0,0.0,0.0,0.0,0.0,0.0,0.0,0.8998,0.9264,0.9563,0.9905,1.0168,1.031,1.0307,1.0317,1.0445,1.07,1.0709,1.0697,1.0697,1.0697,1.0551,1.0264,0.9647,0.9058,0.8509,0.0,0.0,0.0,0.0,0.0,0.9878,0.961,0.9546,0.0,0.0,0.0,0.0,0.0,0.0,0.0,0.0,0.0,0.0,0.0,0.0,0.0,0.9804,0.98,0.9797,0.9802,0.95,0.9252,0.0,0.8871,0.8398,0.8059,0.0,0.0,0.0,0.0,0.0,0.9419,0.9658,0.9799,0.98,0.9807,0.9807,0.9807,0.9798,0.9807,0.9803,0.9558,0.9132,0.853,0.851,0.8213,0.0,0.0,0.0,0.0,0.0,0.0,0.0,0.0,0.0,0.0,0.0,0.0,0.0,0.0,0.0,0.0,0.0,0.0,0.0,0.0,0.0,0.0,0.0,0.0,0.0,0.0,0.0,0.0,1.5998,1.7711,1.8015,1.6329,1.3263,0.0,0.0,0.0,0.0,0.0,0.0,0.8447,0.8884,0.9398,1.0016,1.0029,1.0253,1.0701,1.0705,1.0704,1.0695,1.0702,1.0701,1.0701,1.0703,1.0701,1.0701,1.0701,1.0706,1.0667,1.0223,0.9773,0.9353,0.9279,0.9259,0.9249,0.9257,0.9824,1.0616,1.0681,1.0276,0.972,0.9661,0.0,0.9402,0.9404,0.0,0.0,0.0,0.0,0.9553,0.9745,0.0,0.9859,0.9817,0.9805,0.9808,0.9798,0.9674,0.9495,0.0,0.9042,0.8836,0.8383,0.0,0.0,0.0,0.0,0.909,0.928,0.9591,0.9807,0.9807,0.9807,0.9807,0.9807,0.9807,0.9805,0.9792,0.9795,0.9598,0.9158,0.9132,0.884,0.0,0.0,0.0,0.0,0.0,0.0,0.0,0.0,0.0,0.0,0.0,0.0,0.0,0.0,0.0,0.0,0.0,0.0,0.0,0.0,0.0,0.0,0.0,0.0,0.0,0.0,0.0,0.0,0.0,0.0,1.9163,1.2895,0.0,0.0,0.0,0.0,1.666,1.199,0.9105,0.9673,0.9747,1.0032,1.0637,1.0652,1.0674,1.07,1.0698,1.0707,1.0697,1.0704,1.0711,1.0694,1.0701,1.0701,1.0701,1.0701,1.0701,1.07,1.0665,1.0631,1.0576,1.0335,1.0234,1.0227,1.0234,1.0272,1.0354,1.0608,1.0667,1.059,1.0335,0.9861,0.9398,0.9403,0.9384,0.0,0.0,0.9774,0.9786,0.9787,0.9938,1.0047,0.9842,0.9801,0.9791,0.9803,0.9785,0.978,0.0,0.9446,0.9166,0.9154,0.0,0.894,0.9104,0.9281,0.9422,0.9564,0.9712,0.9807,0.9807,0.9807,0.9807,0.9807,0.9807,0.98,0.9793,0.9799,0.9791,0.9754,0.9752,0.9475,0.8864,0.8262,0.0,0.0,0.0,0.0,0.0,0.0,0.0,0.0,0.0,0.0,0.0,0.0,0.0,0.0,0.0,0.0,0.0,0.0,0.0,0.0,0.0,0.0,0.0,0.0,0.0,0.0,0.0,0.0,1.881,1.2651,0.0,0.0,1.1583,1.1826,1.8273,1.7508,1.6847,1.7056,1.7074,1.7176,1.7386,1.5214,1.297,1.0725,1.0698,1.0703,1.0701,1.0701,1.0701,1.0701,1.0701,1.0701,1.0701,1.0701,1.0701,1.0694,1.0691,1.0707,1.0689,1.0585,1.0556,1.055,1.055,1.057,1.057,1.0665,1.0631,1.0518,1.0207,0.9963,0.9771,0.9677,0.9719,0.9815,0.9946,1.0062,1.0117,1.0118,1.0167,1.022,1.0143,1.0017,0.9924,0.9932,0.9859,0.9803,0.9806,0.9624,0.9396,0.9236,0.9214,0.9219,0.92,0.9382,0.9551,0.959,0.9719,0.9807,0.9807,0.9807,0.9807,0.9807,0.9807,0.9807,0.9807,0.9805,0.9722,0.9552,0.9541,0.9342,0.8907,0.8681,0.8283,0.0,0.0,0.0,0.0,0.0,0.0,0.0,0.0,0.0,0.0,0.0,0.0,0.0,0.0,0.0,0.0,0.0,0.0,0.0,0.0,0.0,0.0,0.0,0.0,0.0,0.0,1.433,1.9374,1.55,1.4408,1.9483,1.6121,1.5385,1.965,2.0673,2.1101,2.1096,2.1092,2.1102,2.1091,1.8856,1.6177,1.3086,1.3045,1.2824,1.2446,1.2446,1.2446,1.2429,1.1844,1.158,1.153,1.0966,1.0701,1.0701,1.0701,1.0696,1.0706,1.0706,1.0693,1.0697,1.0697,1.0704,1.0706,1.0706,1.0633,1.0511,1.0261,1.0163,1.0143,1.0003,1.003,1.0112,1.0143,1.0233,1.0299,1.0299,1.0333,1.0353,1.0306,1.022,1.0143,1.0026,0.9925,0.9852,0.9814,0.9732,0.9618,0.943,0.9477,0.9511,0.9424,0.9551,0.9665,0.9665,0.9746,0.9812,0.9859,0.9819,0.9812,0.9859,0.9793,0.9717,0.9702,0.97,0.9617,0.9412,0.9204,0.8996,0.8774,0.8854,0.866,0.8174,0.0,0.0,0.0,0.0,0.0,0.0,0.0,0.0,0.0,0.0,0.0,0.0,0.0,0.0,0.0,0.0,0.0,0.0,0.0,0.0,0.0,0.0,0.0,1.7649,1.8701,1.9864,2.097,2.1096,2.1101,2.1106,2.1091,2.1104,2.1099,2.1098,2.1091,2.1096,2.1093,2.1096,2.1099,2.1099,2.0006,1.7741,1.7612,1.6969,1.5816,1.5816,1.5784,1.567,1.4052,1.3275,1.3128,1.1439,1.0701,1.0701,1.0701,1.0701,1.0701,1.0701,1.0701,1.0701,1.0701,1.0701,1.0701,1.0701,1.0701,1.068,1.0548,1.0517,1.0473,1.0353,1.0313,1.0313,1.0313,1.0313,1.0313,1.0313,1.0415,1.0466,1.034,1.0408,1.0412,1.0096,1.0013,0.9965,0.9832,0.982,0.9814,0.9807,0.9807,0.9814,0.9814,0.9814,0.0,0.982,0.982,0.9859,0.9992,0.9893,0.9859,0.9992,0.9758,0.9574,0.9501,0.9499,0.9475,0.9396,0.8843,0.8525,0.8505,0.877,0.879,0.852,0.0,0.0,0.0,0.0,0.0,0.0,0.0,0.0,0.0,0.0,0.0,0.0,0.0,0.0,0.0,0.0,0.0,0.0,0.0,0.0,0.0,0.0,1.7914,1.8782,1.9905,2.0748,2.1072,2.1103,2.1103,2.11,2.1105,2.1092,2.1089,2.1108,2.1092,2.1109,2.1093,2.1091,2.1112,2.1112,2.0183,1.8307,1.7007,1.5576,1.4003,1.4003,1.3357,1.2157,1.2931,1.261,1.1389,1.0916,1.0701,1.0701,1.0701,1.0701,1.0701,1.0701,1.0701,1.0701,1.0701,1.0701,1.0701,1.0701,1.0701,1.0694,1.0653,1.0656,1.0633,1.0592,1.0586,1.0586,1.0586,1.0586,1.0586,1.0586,1.0613,1.0649,1.0592,1.0541,1.0466,1.0385,1.029,1.0202,1.0177,1.0154,1.008,0.9847,0.9879,0.9938,0.9938,0.0,0.0,1.0154,1.0154,1.0184,1.0215,1.0181,1.0127,1.0006,0.9932,0.9805,0.0,0.9571,0.9526,0.9402,0.9242,0.897,0.8576,0.903,0.9228,0.0,0.0,0.0,0.0,0.0,0.0,0.0,0.0,0.0,0.0,0.0,0.0,0.0,0.0,0.0,0.0,0.0,0.0,0.0,0.0,0.0,0.0,1.7729,1.8453,1.9424,2.0449,2.1095,2.1101,2.109,2.1093,2.1093,2.1093,2.1093,2.1093,2.1093,2.1093,2.1093,2.1093,2.1093,2.1093,2.1093,2.0605,1.9594,1.8576,1.757,1.656,1.656,1.6043,1.507,1.5346,1.4923,0.0,1.3193,1.2882,1.2882,1.2882,1.2882,0.0,0.0,0.0,0.0,0.0,1.0701,1.08,1.153,1.1795,1.191,1.2643,1.238,1.1795,1.1795,1.1273,1.0701,1.0701,1.0701,1.0701,1.0701,1.0701,1.0701,1.0701,1.0633,1.0568,1.0507,1.0442,1.0367,1.0306,0.0,0.0,1.0046,1.0071,1.0132,1.0132,1.0222,1.0299,0.0,1.0299,1.0319,1.0381,1.0333,1.0286,1.0204,1.0028,0.0,0.0,0.0,0.9457,0.9322,0.0,0.0,0.0,0.0,0.0,0.0,0.0,0.0,0.0,0.8974,0.9042,0.0,0.0,0.0,0.0,0.0,0.0,0.0,0.0,0.0,0.0,0.0,0.0,0.0,0.0,0.0,0.0,1.8395,1.914,1.9813,2.0571,2.106,2.1096,2.1101,2.1093,2.1093,2.1093,2.1093,2.1093,2.1093,2.1093,2.1093,0.0,0.0,0.0,0.0,2.1093,2.1093,2.0919,2.0811,2.0811,2.0811,2.07,2.0478,1.912,1.8388,1.8116,1.656,1.5784,1.5605,1.5605,1.5492,1.503,1.2124,1.0999,1.0999,1.0999,1.0866,1.0949,1.2709,0.0,0.0,1.4809,1.4411,1.3308,1.3308,1.2364,1.1257,1.1049,1.1124,1.1191,1.08,1.085,1.0949,1.075,1.0701,1.0667,1.0548,1.0521,1.0496,1.0367,1.0347,1.0347,1.0347,1.0333,1.0319,1.0319,1.0333,0.0,1.0347,1.0347,1.0394,1.0507,0.0,0.0,1.048,1.0127,0.9868,0.9819,0.9598,0.9424,0.9288,0.9316,0.9362,0.947,0.9491,0.9673,0.9999,1.0019,1.0033,1.0049,0.9895,0.9643,0.0,0.0,0.0,0.0,0.0,0.0,0.0,0.0,0.0,0.0,0.0,0.0,0.0,0.0,0.0,1.8557,1.9197,1.9825,2.0443,2.0659,2.0856,2.1067,2.1098,2.1093,2.1093,2.1093,2.1093,2.1093,2.1093,2.1093,2.1093,2.1093,0.0,2.1093,2.1093,2.1093,2.1093,1.9706,1.8992,1.8992,0.0,0.0,1.6931,1.8004,1.7731,1.6382,1.6043,1.5102,1.3807,1.3807,1.2964,1.1778,1.2512,1.2808,1.2808,1.2808,1.191,1.0949,1.2709,1.238,1.1257,1.1604,1.2429,1.3308,1.3308,1.4052,0.0,1.3193,1.3807,1.4248,1.1439,1.1745,1.2446,1.1032,1.0701,1.0694,1.0667,1.066,1.0653,1.0626,1.0619,1.0619,1.0619,1.0534,1.0469,1.0469,1.0555,1.0619,1.0619,1.0619,1.0626,1.0653,1.0633,1.0595,1.0517,1.0412,1.0247,0.9972,0.9966,0.9925,0.9846,0.9998,1.0019,0.9893,1.0046,1.0086,0.9999,1.0159,1.0297,1.0399,1.0158,0.9973,0.0,0.0,0.0,0.0,0.0,0.0,0.0,0.0,0.0,0.0,0.0,1.714,0.0,0.0,1.865,1.9251,1.9853,2.0363,2.0672,2.0817,2.0949,2.108,2.1093,2.1093,2.1093,2.1093,2.1093,2.1093,2.1093,2.1093,2.1093,2.1093,2.1093,2.1093,2.1093,2.1093,2.1093,2.0243,1.9801,1.9801,1.9801,1.9355,1.8528,1.9403,1.9339,1.8512,1.8512,1.8004,1.72,1.72,1.6689,1.5897,1.5897,1.4851,1.3406,1.4281,1.4052,1.3545,1.5297,1.5329,1.4754,1.5622,1.5897,1.5897,1.5897,1.5281,1.4607,1.4607,1.397,1.3095,1.2232,1.2009,1.1778,1.0916,1.0701,1.0701,1.0701,1.0701,1.0701,1.0701,1.0701,1.0701,1.0701,1.064,1.0609,1.0609,1.0653,1.0701,1.0701,1.0701,1.0701,1.0701,1.0701,1.0674,1.0616,1.0534,1.0399,1.0166,1.0184,1.0199,1.0152,1.0258,1.0276,1.0254,1.0344,1.0385,1.0353,1.0443,1.0534,1.0602,1.0453,1.0385,0.0,0.0,0.0,0.0,0.0,0.0,0.0,0.0,1.6792,1.734,1.7488,1.7755,1.8531,1.8945,1.933,1.988,2.043,2.0777,2.0777,2.0962,2.1093,2.1093,2.1093,2.1093,2.1093,2.1093,2.1093,2.1093,2.1093,2.1093,2.1093,2.1093,2.1093,2.1093,2.1093,2.1093,2.1093,2.1093,2.1093,2.1093,2.1093,2.1093,2.1093,2.1093,2.1093,2.1077,2.0732,2.0589,2.0573,2.0227,2.0084,1.9989,1.8912,1.677,1.4477,1.5881,1.6188,1.6156,1.7907,1.8276,1.8228,1.9626,1.9371,1.8512,1.8512,1.677,1.5037,1.6108,1.464,1.2882,1.3611,1.275,1.1613,1.129,1.0949,1.0701,1.0701,1.0701,1.0701,1.0701,1.0701,1.0701,1.0701,1.0701,1.0701,1.0701,1.0701,1.0701,1.0701,1.0701,1.0701,1.0701,1.0701,1.0701,1.0701,1.0609,1.0487,1.0371,1.0381,1.0381,1.0381,1.0381,1.0435,1.0534,1.0534,1.0595,1.0701,1.0701,1.0701,1.0701,1.0701,1.0701,1.6177,1.5979,0.0,1.6473,1.6633,1.686,0.0,0.0,1.7916,1.829,1.8544,1.8838,1.9227,1.972,2.0157,2.0537,2.0871,2.1069,2.1069,2.1082,2.1093,2.1093,2.1093,2.1093,2.1093,2.1093,2.1093,2.1093,2.1093,2.1093,2.1093,2.1093,2.1093,2.1093,2.1093,2.1093,2.1093,2.1093,2.1093,2.1093,2.1093,2.1093,2.1093,2.1093,2.1093,2.1014,1.9467,1.8784,1.8672,1.7108,1.6479,1.6609,1.7972,1.826,1.794,1.8132,1.7221,1.6156,1.7907,1.749,1.6221,1.6415,1.7409,1.8512,1.8512,1.9307,1.9957,1.8592,1.904,1.9275,1.635,1.5459,1.4923,1.339,1.1828,1.0701,1.0701,1.0701,1.0701,1.0701,1.0701,1.0701,1.0701,1.0701,1.0701,1.0701,1.0701,1.0701,1.0701,1.0701,1.0701,1.0701,1.0701,1.0701,1.0701,1.0687,1.0674,1.0653,1.0653,1.0653,1.0653,1.0653,1.066,1.068,1.068,1.0687,1.0701,1.0701,1.0701,1.0701,1.0701,1.0701,1.6351,0.0,0.0,0.0,1.6967,1.7355,1.7876,1.8009,1.8182,1.8879,1.9106,1.9387,2.0043,2.0336,2.0588,0.0,2.1029,2.1093,2.1093,2.1093,2.1093,2.1093,2.1093,2.1093,2.1093,2.1093,2.1093,2.1093,2.1093,2.1093,2.1093,2.1285,2.1379,2.1379,2.1379,2.1459,2.1617,2.1472,2.1472,2.1617,2.1617,2.1617,2.1617,2.1617,2.1617,2.1571,2.0693,2.0294,2.0233,1.9304,1.8928,1.8992,1.9722,2.002,2.002,2.002,1.9546,1.9024,1.9753,1.9546,1.8928,1.8928,1.9419,2.002,2.002,1.9801,1.9642,1.9941,1.9072,1.7972,1.7538,1.6657,1.5719,1.4998,1.4264,1.3725,1.3725,1.3725,1.3439,1.2413,1.2215,1.1894,1.0866,1.0701,1.0701,1.0701,1.0701,1.0701,1.0701,1.0701,1.0701,1.0701,1.0701,1.0701,1.0701,1.0701,1.0701,1.0701,1.0701,1.0701,1.0701,1.0701,1.0701,1.0701,1.0701,1.0701,1.0701,1.0701,1.0732,1.0819,1.0819,1.0884,1.6351,0.0,0.0,1.6901,1.7395,1.7929,1.8196,1.8369,1.8689,1.9373,1.9642,1.995,2.0577,2.075,0.0,2.1082,2.1093,2.1093,2.1093,2.1093,2.1093,2.1093,2.1093,2.1093,2.1093,2.1093,2.1149,2.1229,2.1245,2.1269,2.1349,2.1582,2.1703,2.1703,2.1703,2.181,2.1994,2.181,2.181,2.2007,2.2007,2.2007,2.2007,2.2007,2.2007,2.1994,2.1796,2.1679,2.1585,2.1339,2.1189,2.1093,2.1093,2.1162,2.1232,2.112,2.1093,2.1093,2.1093,2.1093,2.1093,2.1093,2.1093,2.1093,2.1093,2.0211,1.9483,2.0732,1.9291,1.7618,1.888,1.7923,1.6609,1.6609,1.6253,1.5897,1.5897,1.5524,1.4809,1.3545,1.2914,1.2183,1.0916,1.0701,1.0701,1.0701,1.0701,1.0701,1.0701,1.0701,1.0701,1.0701,1.0701,1.0701,1.0701,1.0701,1.0701,1.0701,1.0701,1.0701,1.0701,1.0701,1.0701,1.0701,1.0701,1.0728,1.0768,1.0768,1.0826,1.0975,1.0975,1.1063,0.0,0.0,1.6847,1.7421,1.8023,1.8544,1.881,1.9332,1.976,1.9786,2.0256,2.0672,2.0699,2.0909,2.108,2.1093,2.1093,2.1093,2.1093,2.1093,2.1093,2.1093,2.1093,2.1093,0.0,2.1093,2.1229,2.1558,2.1585,2.1689,2.1967,2.1981,2.1994,2.1994,2.1994,2.1994,2.2007,2.1994,2.1994,2.2007,2.2007,2.2007,2.2007,2.2007,2.2007,2.2007,2.1994,2.185,2.1598,2.1585,2.1379,2.1093,2.1093,2.1299,2.1558,2.1216,2.1093,2.1093,2.1093,2.1093,2.1093,2.1093,2.1093,2.1093,2.1093,2.1062,2.103,2.1093,2.103,2.0951,2.1014,1.9722,1.842,1.842,1.7125,1.5897,1.5897,1.4574,1.3357,1.3308,1.1943,1.0767,1.0701,1.0701,1.0701,1.0701,1.0701,1.0701,1.0701,1.0701,1.0701,1.0701,1.0701,1.0701,1.0701,1.0701,1.0701,1.0701,1.0701,1.0701,1.0701,1.0701,1.0701,1.0701,1.0701,1.0759,1.089,1.089,1.0999,1.1193,1.1193,1.1193,0.0,0.0,1.7448,1.805,1.8477,1.8851,1.9159,1.9534,1.98,1.98,2.0092,2.0441,2.0657,2.0777,2.0882,2.1082,2.1093,2.1093,2.1093,2.1093,2.1093,2.1093,2.1093,0.0,0.0,0.0,0.0,2.1569,2.1598,2.1716,2.1994,2.2164,2.2271,2.2271,2.2271,2.2365,2.2582,2.2382,2.2382,2.2599,2.2599,2.2599,2.2599,2.2599,2.2599,2.2569,2.2365,2.2218,2.2111,2.194,2.1793,2.1713,2.1713,2.1767,2.1847,2.174,2.1713,2.163,2.1243,2.1093,2.1093,2.1093,2.1093,2.1093,2.1093,2.1093,2.1093,2.1093,2.1093,2.1093,2.1093,2.0652,2.0227,2.0227,1.9769,1.9355,1.9355,1.888,1.8132,1.6963,1.5329,1.3818,1.2746,1.1598,1.084,1.084,1.0752,1.0701,1.0701,1.0701,1.0701,1.0701,1.0779,1.084,1.084,1.0962,1.1033,1.1033,1.1033,1.1033,1.1033,1.1033,1.1033,1.1033,1.1033,1.1053,1.1108,1.1108,1.1182,1.1332,1.1332,1.1386,0.0,1.7382,1.7889,1.849,1.8865,1.9146,1.9348,1.9601,1.98,1.98,2.0012,2.0279,2.0481,2.0617,2.075,2.0922,2.1042,2.1093,2.1093,2.1093,2.1093,2.1093,2.1093,0.0,0.0,0.0,0.0,2.1716,2.1743,2.1917,2.2288,2.2489,2.2579,2.2579,2.2579,2.2689,2.2893,2.2689,2.2689,2.2893,2.2893,2.2893,2.2893,2.2893,2.2893,2.288,2.2676,2.2512,2.2388,2.2218,2.2101,2.2007,2.2007,2.2061,2.2124,2.2047,2.2061,2.2058,2.1486,2.1285,2.1272,2.1149,2.1093,2.1093,2.1093,2.1093,2.112,2.1243,2.1285,2.1296,2.139,2.1416,2.1403,2.1296,2.1349,2.139,2.1312,2.0856,2.0167,1.9042,1.7418,1.5685,1.3966,1.2182,1.1006,1.1006,1.0924,1.0839,1.0721,1.0732,1.0765,1.0765,1.0917,1.1006,1.1006,1.1128,1.12,1.12,1.12,1.12,1.12,1.12,1.12,1.12,1.12,1.1227,1.1281,1.1281,1.1339,1.147,1.147,1.1525,1.7381,1.7836,1.8182,1.877,1.9158,1.9401,1.9401,1.9601,1.98,1.9786,1.9998,2.0184,0.0,0.0,2.067,2.0699,2.0938,2.1093,2.1093,2.1107,2.1136,0.0,0.0,0.0,0.0,0.0,0.0,2.1981,0.0,2.2261,2.2867,2.2893,2.2893,2.2893,2.2893,2.2893,2.2893,2.2893,2.2893,2.2893,2.2893,2.2893,2.2893,2.2893,2.2893,2.2893,2.2893,2.2716,2.2428,2.2428,2.2285,2.2047,2.2047,2.2205,2.2388,2.2141,2.2205,2.2348,2.1823,2.1638,2.1569,2.1243,2.1149,2.1149,2.1149,2.1149,2.1216,2.1529,2.1625,2.1676,2.1927,2.2007,2.194,2.1676,2.181,2.1927,2.1679,2.0507,1.9526,1.9526,1.8139,1.633,1.4352,1.2536,1.1327,1.1224,1.12,1.1097,1.0762,1.0833,1.0928,1.0928,1.109,1.1206,1.1206,1.122,1.122,1.122,1.122,1.122,1.122,1.122,1.122,1.122,1.122,1.1277,1.1402,1.1402,1.1477,1.1602,1.1602,1.1602,1.7782,1.8276,1.877,1.9173,1.9348,1.9401,1.9401,1.9601,1.9733,1.9534,1.9721,1.9892,0.0,0.0,0.0,2.0657,2.0938,0.0,2.1093,2.1312,0.0,0.0,0.0,2.1764,2.1764,2.1764,0.0,0.0,2.2111,2.2261,2.2867,2.2893,2.2893,2.2893,2.2893,2.2893,2.2893,2.2893,2.2893,2.2893,2.2893,2.2893,2.2893,2.2893,2.2893,2.2893,2.2893,2.2853,2.2769,2.2769,2.2733,2.2679,2.2679,2.2719,2.2756,2.2693,2.2702,2.2716,2.2325,2.2074,2.1874,2.1807,2.1764,2.1764,2.1764,2.1764,2.1793,2.1874,2.1903,2.1914,2.1981,2.2007,2.1981,2.1914,2.1954,2.1981,2.1914,2.1595,2.1338,2.1338,2.0011,1.7882,1.47,1.3756,1.2965,1.1555,1.1257,1.1172,1.1074,1.1101,1.1121,1.1121,1.1264,1.1352,1.1352,1.1436,1.1504,1.1504,1.1504,1.1504,1.1504,1.1504,1.1504,1.1504,1.1504,1.1507,1.1541,1.1541,1.1561,1.1602,1.1602,1.1602,1.8103,1.8543,1.8984,1.9321,1.9401,1.9361,1.9213,1.9413,1.9507,1.9079,1.9333,0.0,0.0,0.0,0.0,0.0,0.0,0.0,2.1299,2.1475,2.1636,0.0,2.19,0.0,2.2007,2.2007,2.2111,0.0,2.2271,2.2395,2.2867,2.2893,2.2893,2.2893,2.2893,2.2893,2.2893,2.2893,2.2893,2.2893,2.2893,2.2893,2.2893,2.2893,2.2893,2.2893,0.0,2.2893,2.2893,2.2893,2.2893,2.2893,2.2893,2.2893,2.2893,2.2893,2.2893,2.288,2.2689,2.2529,2.2342,2.2087,2.2007,2.2007,2.2007,2.2007,2.2021,2.2138,2.2178,2.2205,2.2355,2.2382,2.2355,2.2205,2.2288,2.2355,2.2205,2.2288,2.2382,2.2382,2.1001,1.89,1.6012,1.4833,1.3647,1.1768,1.1416,1.1379,1.1379,1.1325,1.1295,1.1295,1.142,1.1491,1.1491,1.1554,1.1602,1.1602,1.1602,1.1602,1.1602,1.1602,1.1602,1.1602,1.1602,1.1602,1.1602,1.1662,1.1696,1.1696,1.1782,1.1816,1.8397,1.8758,1.9052,1.9334,1.9401,1.9306,1.8971,1.9118,1.9187,1.8625,0.0,0.0,1.8957,0.0,2.0197,2.0197,0.0,2.1216,2.1542,2.1638,2.1756,2.2021,2.2087,2.2114,2.2114,2.2114,2.2221,2.2442,2.2472,2.2592,2.288,2.2893,2.2893,2.2893,2.2893,2.2893,2.2893,2.2893,2.2893,2.2893,2.2893,2.2893,2.2893,2.2893,2.2893,2.2893,0.0,0.0,2.2893,2.2893,2.2893,2.2893,2.2893,2.2893,2.2893,2.2893,2.2893,2.2893,2.2893,2.2893,2.2813,2.2288,2.2114,2.2114,2.2114,2.2114,2.2168,2.2405,2.2472,2.2539,2.2809,2.2893,2.2827,2.2539,2.2689,2.2827,2.2539,2.2712,2.296,2.296,2.1668,1.9895,1.7674,1.5941,1.4133,1.1999,1.1681,1.1681,1.1681,1.1531,1.144,1.144,1.1558,1.1629,1.1629,1.1649,1.1681,1.1681,1.1681,1.1681,1.1681,1.1681,1.1681,1.1681,1.1681,1.1681,1.1681,1.1784,1.1845,1.1845,1.2018,1.2098,1.8744,1.9065,1.9334,1.9388,1.9401,1.9306,1.8971,1.893,0.0,0.0,0.0,1.8971,1.8903,1.961,0.0,2.0197,0.0,0.0,0.0,0.0,2.2034,0.0,0.0,0.0,0.0,0.0,0.0,0.0,0.0,2.284,2.2893,2.2893,2.2893,2.2893,2.2893,2.2893,2.2893,2.2893,2.2893,2.2893,2.2893,2.2893,2.2893,2.2893,2.2893,2.2893,2.2893,0.0,2.2893,2.2893,2.2893,2.2893,2.2893,2.2893,2.2893,2.2893,2.2893,2.2893,2.2893,2.2893,2.288,2.2773,2.2746,2.2746,2.2746,2.2746,2.276,2.28,2.2813,2.2827,2.288,2.2893,2.288,2.284,2.2853,2.288,2.2827,2.3033,2.3229,2.3229,2.3188,2.2007,1.8398,1.7512,1.6086,1.2553,1.2004,1.2004,1.2004,1.1748,1.1561,1.1561,1.169,1.1778,1.1778,1.1911,1.2004,1.2004,1.2004,1.2004,1.2004,1.2004,1.2004,1.2004,1.2004,1.2004,1.2004,1.205,1.2057,1.2038,1.2084,1.2098,1.8824,1.9252,1.9574,1.9428,1.9494,1.9454,1.8838,0.0,0.0,0.0,0.0,1.8864,1.8731,0.0,0.0,0.0,0.0,0.0,0.0,0.0,0.0,0.0,0.0,0.0,0.0,0.0,0.0,0.0,0.0,2.305,2.2907,2.3037,2.31,2.31,2.3277,2.3375,2.3375,2.3375,2.3375,2.3375,2.3375,2.3375,2.3375,2.3375,2.3375,2.3375,2.3375,0.0,2.31,2.31,2.3023,2.292,2.3063,2.31,2.3126,2.3291,2.3375,2.3375,2.3375,2.3375,2.3375,2.3375,2.3161,2.2893,2.2893,2.2893,2.2893,2.2893,2.2893,2.2934,2.306,2.31,2.314,2.3335,2.3375,2.3375,2.3375,2.3465,2.3554,2.3554,2.3692,2.2885,1.9967,1.8596,1.6937,1.4093,1.278,1.2098,1.2098,1.1957,1.1868,1.1868,1.1911,1.1952,1.1952,1.2038,1.2098,1.2098,1.2098,1.2098,1.2098,1.2098,1.2098,1.2098,1.2098,1.2098,1.2098,1.2161,1.2201,1.2201,1.2276,1.231,1.8984,1.9438,1.976,1.9614,1.9694,1.9586,1.8771,1.869,0.0,0.0,0.0,0.0,1.8531,0.0,0.0,0.0,0.0,0.0,0.0,0.0,0.0,0.0,0.0,0.0,0.0,0.0,0.0,0.0,0.0,0.0,2.3108,2.3287,2.3403,2.3403,2.3665,2.3803,2.3803,2.3803,2.3803,2.3803,2.3803,2.3803,2.3803,2.3803,2.3803,2.3803,2.3803,0.0,0.0,2.3403,2.3273,2.3121,2.3327,2.3403,2.3429,2.3705,2.3803,2.3803,2.3803,2.3803,2.3803,2.3803,2.3442,2.3014,2.3067,2.3054,2.3014,2.3081,2.3094,2.3148,2.3354,2.3403,2.347,2.3732,2.3803,2.3803,2.3803,2.3857,2.3879,2.3879,2.3933,2.3335,2.139,1.973,1.8047,1.6138,1.4503,1.3491,1.3491,1.3098,1.2824,1.2824,1.2421,1.2145,1.2145,1.2179,1.2193,1.2193,1.2193,1.2193,1.2193,1.2193,1.2193,1.2193,1.2193,1.2193,1.2193,1.2296,1.2338,1.2358,1.2447,1.2501,1.9492,1.976,1.9853,2.0064,1.9958,1.9639,1.9011,0.0,0.0,0.0,1.8103,1.8517,1.849,0.0,0.0,0.0,0.0,0.0,0.0,0.0,0.0,0.0,0.0,0.0,0.0,0.0,0.0,0.0,0.0,0.0,2.3723,2.3732,2.3745,2.3745,2.3772,2.3803,2.3803,2.3803,2.3803,2.3803,2.3803,2.3803,2.3803,2.3803,2.3803,2.3803,2.3803,0.0,0.0,2.3745,2.375,2.3723,2.3732,2.3745,2.3745,2.379,2.3803,2.3803,2.3803,2.3803,2.3803,2.3803,2.3572,2.3323,2.3625,2.35,2.3323,2.3625,2.3723,2.3705,2.3745,2.3745,2.3759,2.3785,2.3803,2.3803,2.3803,2.3999,2.4168,2.4168,2.4364,2.3898,2.1884,2.137,2.0587,1.8587,1.8116,1.8002,1.8002,1.6355,1.5184,1.5184,1.3436,1.229,1.229,1.2386,1.2461,1.2461,1.2461,1.2461,1.2461,1.2461,1.2461,1.2461,1.2461,1.2461,1.2461,1.2474,1.2481,1.2481,1.2494,1.2501,1.9613,2.0069,2.0307,2.0224,2.0117,1.9892,1.9319,0.0,0.0,1.8197,1.8317,1.8544,1.8704,1.92,0.0,0.0,0.0,0.0,0.0,0.0,0.0,0.0,0.0,0.0,0.0,0.0,0.0,0.0,0.0,0.0,2.4271,2.4128,2.4053,2.4053,2.4195,2.4271,2.4271,2.4271,2.4271,2.4271,2.4271,2.4271,2.4271,2.4271,2.4271,2.4271,2.4271,0.0,0.0,2.4053,2.3946,2.383,2.3986,2.4053,2.4048,2.4222,2.4271,2.4271,2.4271,2.4271,2.4271,2.4271,2.407,2.3848,2.3812,2.3705,2.3638,2.3759,2.3803,2.3843,2.3999,2.4155,2.4271,2.4271,2.4271,2.4342,2.4534,2.4668,2.4783,2.4957,2.5072,2.4893,2.4092,2.2929,2.1869,2.1073,1.9872,1.9082,1.9082,1.8367,1.7845,1.7845,1.4585,1.242,1.242,1.2467,1.2501,1.2501,1.2501,1.2501,1.2501,1.2589,1.2617,1.2617,1.2732,1.2799,1.2799,1.2799,1.2799,1.2799,1.2799,1.2799,1.9731,2.0294,2.0657,2.0506,2.033,2.0077,0.0,0.0,1.8597,1.8518,1.8557,1.8677,1.8877,1.9239,1.9667,2.0117,0.0,2.0668,0.0,0.0,0.0,0.0,0.0,0.0,0.0,0.0,0.0,0.0,0.0,0.0,0.0,2.4417,2.4311,2.4311,2.4492,2.4599,2.4599,2.4599,2.4599,2.4599,2.4599,2.4599,2.4599,2.4599,2.4599,2.4599,0.0,0.0,0.0,2.4311,2.4209,2.4066,2.423,2.4311,2.4337,2.4519,2.4599,2.4599,2.4599,2.4599,2.4599,2.4599,2.4466,2.4271,2.4088,2.3986,2.3933,2.3995,2.404,2.4075,2.4257,2.4524,2.4751,2.4751,2.4818,2.4938,2.5157,2.5229,2.5264,2.5459,2.5499,2.5499,2.5499,2.4329,2.3381,2.3381,2.214,2.121,2.121,2.0674,2.0323,2.0323,1.6845,1.4536,1.4536,1.3961,1.3598,1.3598,1.3598,1.3598,1.3598,1.4289,1.4369,1.3747,1.4492,1.4573,1.3942,1.4592,1.4592,1.3962,1.4592,1.4683,1.9957,2.0441,2.0764,2.1029,2.0653,2.013,0.0,1.9331,1.8824,1.8544,1.8704,1.8904,1.889,1.9384,1.9878,2.0157,2.0481,0.0,0.0,0.0,0.0,0.0,0.0,0.0,0.0,0.0,0.0,0.0,0.0,0.0,0.0,2.4599,2.4599,2.4599,2.4599,2.4599,2.4599,2.4599,2.4599,2.4599,2.4599,2.4599,2.4599,2.4599,2.4599,0.0,0.0,0.0,0.0,2.4599,2.4586,2.4586,2.4586,2.4599,2.4599,2.4599,2.4599,2.4599,2.4599,2.4599,2.4599,2.4599,2.4599,2.4599,2.4586,2.4404,2.4262,2.4524,2.4586,2.4586,2.4599,2.4831,2.5096,2.5096,2.5291,2.5485,2.5504,2.5504,2.5504,2.5499,2.5499,2.5499,2.5499,2.5466,2.548,2.548,2.5447,2.5441,2.5441,2.3701,2.2462,2.2462,2.0576,1.9337,1.9337,1.7384,1.6157,1.6157,1.6157,1.6157,1.6157,1.821,1.8328,1.6216,1.8249,1.8288,1.6177,1.8347,1.8318,1.6216,1.8347,1.8621,1.9197,1.981,2.0332,2.0241,2.008,1.9892,1.9826,1.9331,1.8944,1.9093,1.8998,1.8971,1.92,1.9561,1.996,2.0454,2.0788,0.0,0.0,0.0,0.0,0.0,0.0,0.0,0.0,0.0,0.0,0.0,0.0,0.0,0.0,2.4599,2.4599,2.4599,2.4599,2.4599,2.4599,2.4599,2.4599,2.4599,2.4599,2.4599,2.4599,2.4599,0.0,0.0,0.0,0.0,0.0,2.4599,2.4599,2.4599,2.4599,2.4599,2.4599,2.4599,2.4599,2.4599,2.4599,2.4599,2.4599,2.4599,2.4599,2.4599,2.4599,2.4532,2.4497,2.4572,2.4764,2.4943,2.4943,2.5157,2.5371,2.5371,2.5451,2.5571,2.5791,2.5831,2.5898,2.6066,2.6106,2.6106,2.6106,2.6106,2.6106,2.6106,2.6106,2.6106,2.6106,2.5564,2.5158,2.5158,2.4576,2.289,1.9661,1.8779,1.8387,1.8387,1.8387,1.8387,1.8387,1.9184,1.9284,1.8609,1.9354,1.9414,1.8731,1.9434,1.9414,1.8711,1.8383,1.696,0.0,1.9558,2.0039,1.9972,1.9865,1.98,1.98,1.9426,1.9159,1.9361,1.924,1.9145,1.9361,1.9693,2.0065,2.0454,2.0842,0.0,0.0,0.0,0.0,0.0,0.0,0.0,0.0,0.0,0.0,0.0,0.0,0.0,0.0,2.4719,2.4653,2.4778,2.4671,2.4599,2.4599,2.4599,2.4599,2.4599,2.4599,2.4599,2.4599,2.4599,0.0,0.0,0.0,0.0,0.0,2.4599,2.4599,2.4599,2.4599,2.4599,2.4599,2.4599,2.4599,2.4599,2.4599,2.4599,2.4613,2.4751,2.4858,2.4933,2.4933,2.4871,2.4778,2.4778,2.501,2.5237,2.5237,2.5464,2.5697,2.5697,2.5758,2.5892,2.6118,2.6158,2.6192,2.6379,2.6406,2.6406,2.6406,2.6406,2.6406,2.6406,2.6406,2.6406,2.6406,2.6406,2.6406,2.6406,2.6406,2.5228,2.2278,2.128,2.0807,2.0807,2.0807,2.0807,2.0807,2.1712,2.1842,2.0994,2.1887,2.1945,2.112,2.112,2.1543,2.2267,1.914,1.792,0.0,1.952,1.98,2.0024,1.9918,1.9773,1.9773,1.9574,0.0,1.9401,1.9401,1.9401,1.9428,1.9853,2.021,2.0264,2.0759,0.0,0.0,0.0,0.0,0.0,0.0,0.0,0.0,0.0,0.0,0.0,0.0,0.0,0.0,2.4978,2.4805,2.5122,2.4818,2.4639,2.4599,2.4599,2.4599,2.4599,2.4626,2.4639,2.4639,2.4639,0.0,0.0,0.0,0.0,0.0,2.4599,2.4599,2.4599,2.4599,2.4599,2.4599,2.4599,2.4613,2.4639,2.4639,2.4639,2.4724,2.5042,2.5291,2.5499,2.5499,2.5331,2.5136,2.5136,2.5336,2.5545,2.5545,2.5778,2.6024,2.6024,2.6219,2.6406,2.6406,2.6406,2.6406,2.6406,2.6406,2.6406,2.6406,2.6406,2.6406,2.6406,2.6406,2.6406,2.6406,2.6406,2.6406,2.6406,2.6406,2.6406,2.6406,2.4522,2.332,2.332,2.332,2.332,2.332,2.531,2.5429,2.336,2.535,2.5389,2.332,2.332,2.4402,2.6268,2.0832,2.123,1.821,0.0,1.9077,1.8931,1.92,1.9495,0.0,1.9441,1.9401,0.0,0.0,0.0,0.0,1.9972,2.0344,0.0,0.0,0.0,0.0,0.0,0.0,0.0,0.0,0.0,0.0,0.0,0.0,0.0,0.0,0.0,0.0,2.5365,2.5312,2.5411,2.5325,2.5072,2.4599,2.4599,2.4599,2.4599,2.4863,2.497,2.497,2.497,0.0,0.0,0.0,0.0,2.4599,2.4599,2.4599,2.4599,2.4599,2.4599,2.4599,2.4599,2.4764,2.497,2.497,2.5117,2.5298,2.5384,2.5464,2.5499,2.5499,2.5464,2.5411,2.5411,2.5644,2.5871,2.5871,2.6085,2.6312,2.6312,2.6353,2.6406,2.6406,2.6406,2.6406,2.6406,2.6406,2.6406,2.6406,2.6406,2.6406,2.6406,2.6406,2.6406,2.6406,2.6406,2.6406,2.6406,2.6406,2.6406,2.6406,2.5918,2.5621,2.5621,2.5621,2.5621,2.5621,2.6129,2.6169,2.564,2.6149,2.6149,2.5621,2.5621,2.5878,2.6366,2.4994,2.5079,1.7929,1.8449,1.8904,1.8919,1.924,1.9764,2.0437,0.0,0.0,0.0,0.0,0.0,0.0,0.0,0.0,0.0,0.0,0.0,0.0,0.0,0.0,0.0,0.0,0.0,0.0,0.0,0.0,0.0,0.0,0.0,0.0,2.5665,2.5571,2.5718,2.5585,2.5339,2.5018,2.5018,2.5018,2.5018,2.5197,2.5277,2.5277,2.5163,2.5096,0.0,0.0,0.0,2.4599,2.4599,2.4599,2.4599,2.4599,2.4679,2.4818,2.4818,2.5024,2.5277,2.5277,2.5478,2.5738,2.5738,2.5812,2.5919,2.5919,2.5919,2.5892,2.5758,2.5951,2.6179,2.6179,2.6286,2.6406,2.6406,2.6406,2.6406,2.6406,2.6406,2.6406,2.6406,2.6493,2.6587,2.6587,2.6707,2.6807,2.6807,2.6807,2.6767,2.66,2.6727,2.6754,2.66,2.6587,2.6587,2.6587,2.6466,2.6406,2.6406,2.6406,2.6406,2.6406,2.6406,2.6406,2.6406,2.6406,2.6406,2.6406,2.6407,2.6401,2.6394,2.6413,2.6406,1.8293,1.8891,1.9395,1.9613,1.9898,2.0513,2.1946,0.0,0.0,0.0,0.0,0.0,0.0,0.0,0.0,0.0,0.0,0.0,0.0,0.0,0.0,0.0,0.0,0.0,0.0,0.0,0.0,0.0,0.0,0.0,0.0,2.5919,2.5758,2.6051,2.5791,2.5651,2.5651,2.5558,2.5499,2.5499,2.5558,2.5585,2.5571,2.535,2.5203,0.0,0.0,0.0,2.4599,2.4599,2.4599,2.4599,2.4653,2.4863,2.5096,2.5149,2.535,2.5585,2.5625,2.5812,2.6065,2.6065,2.6205,2.6406,2.6406,2.6406,2.6353,2.6131,2.6219,2.6406,2.6406,2.6406,2.6406,2.6406,2.6406,2.6406,2.6406,2.6426,2.6453,2.6453,2.6694,2.6894,2.6894,2.7115,2.7309,2.7309,2.7309,2.7195,2.69,2.7108,2.7195,2.6921,2.6894,2.6894,2.6894,2.6667,2.654,2.654,2.648,2.648,2.654,2.648,2.65,2.654,2.648,2.65,2.654,2.6433,2.6458,2.6532,2.6634,2.6658,1.9931,2.0907,2.1267,2.0919,2.1245,2.199,2.3239,0.0,0.0,0.0,0.0,0.0,0.0,0.0,0.0,0.0,0.0,0.0,0.0,0.0,0.0,0.0,0.0,0.0,0.0,0.0,0.0,0.0,0.0,0.0,0.0,2.6306,2.6299,2.6339,2.6299,2.6253,2.6253,2.5758,2.5499,2.5499,2.5791,2.5931,2.5931,2.5877,2.5711,0.0,0.0,2.4863,2.4599,2.4599,2.4599,2.4626,2.4917,2.5056,2.5122,2.5358,2.5638,2.5957,2.6172,2.6299,2.6339,2.6339,2.6379,2.6406,2.6406,2.6406,2.6393,2.6353,2.6379,2.6406,2.6406,2.6406,2.6406,2.6406,2.6406,2.6406,2.6406,2.6587,2.674,2.674,2.7001,2.7222,2.7222,2.7282,2.7309,2.7309,2.7309,2.7275,2.7222,2.7282,2.7282,2.7222,2.7222,2.7222,2.7222,2.7202,2.7155,2.7155,2.6894,2.6867,2.7141,2.6894,2.6881,2.7162,2.6881,2.6881,2.7155,2.664,2.6666,2.7167,2.7683,2.7907,2.1364,2.2543,2.3392,2.3974,2.4044,2.4296,0.0,0.0,0.0,0.0,0.0,0.0,0.0,0.0,0.0,0.0,0.0,0.0,0.0,0.0,0.0,0.0,0.0,0.0,0.0,0.0,0.0,0.0,0.0,0.0,0.0,0.0,2.6406,2.6406,2.6406,2.6406,2.6406,2.6119,2.5985,2.5985,2.6139,2.6205,2.6205,2.6065,2.5917,2.5751,0.0,2.5237,2.5098,2.5098,2.5098,2.5098,2.5264,2.543,2.5623,2.5898,2.6066,2.6232,2.6366,2.6406,2.6406,2.6406,2.6406,2.6406,2.6406,2.6406,2.6406,2.6406,2.6406,2.6406,2.6406,2.6406,2.6406,2.6406,2.6507,2.6627,2.6627,2.6854,2.7068,2.7068,2.7315,2.7516,2.7516,2.767,2.7777,2.7777,2.7777,2.7724,2.7542,2.7663,2.7724,2.7542,2.7516,2.7516,2.7516,2.7382,2.7309,2.7309,2.7155,2.7141,2.7296,2.7155,2.7141,2.7309,2.7155,2.708,2.7139,2.6985,2.6873,2.6852,2.7772,2.8205,2.3151,2.4213,2.5185,2.6941,0.0,0.0,0.0,0.0,0.0,0.0,0.0,0.0,0.0,0.0,0.0,0.0,0.0,0.0,0.0,0.0,0.0,0.0,0.0,0.0,0.0,0.0,0.0,0.0,0.0,0.0,0.0,0.0,2.6406,2.6406,2.6406,2.6406,2.6406,2.6406,2.6406,2.6406,2.6406,2.6406,2.6386,2.6198,2.6065,2.5984,2.5738,2.5571,2.5499,2.5499,2.5499,2.5499,2.5585,2.5818,2.6131,2.6326,2.6406,2.6406,2.6406,2.6406,2.6406,2.6406,2.6406,2.6406,2.6406,2.6406,2.64,2.6466,2.6493,2.6493,2.6493,2.6493,2.6507,2.6593,2.676,2.6921,2.6921,2.7181,2.7382,2.7382,2.7623,2.7823,2.7823,2.8031,2.82,2.82,2.82,2.8098,2.785,2.8045,2.8098,2.785,2.7823,2.7823,2.7823,2.7623,2.751,2.751,2.7443,2.7422,2.751,2.7443,2.7422,2.751,2.7422,2.7347,2.7277,2.7427,2.7257,2.6843,2.7772,2.82,2.5789,2.6073,2.6148,2.8743,0.0,0.0,0.0,0.0,0.0,0.0,0.0,0.0,0.0,0.0,0.0,0.0,0.0,0.0,0.0,0.0,0.0,0.0,0.0,0.0,0.0,0.0,0.0,0.0,0.0,0.0,0.0,0.0,0.0,2.6406,2.6406,2.6406,2.6406,2.6406,2.6406,2.6406,2.6406,2.6406,2.6406,2.6393,2.6232,2.5998,2.5971,2.5791,2.5499,2.5499,2.5499,2.5545,2.5831,2.6125,2.6379,2.6386,2.6406,2.6406,2.6406,2.6406,2.6406,2.6406,2.6406,2.6406,2.6406,2.6406,2.6453,2.6687,2.6767,2.6767,2.6767,2.6767,2.6854,2.7155,2.7255,2.7248,2.7248,2.7489,2.7669,2.7669,2.7951,2.8152,2.8152,2.8186,2.82,2.82,2.82,2.82,2.8173,2.8186,2.82,2.8173,2.8152,2.8152,2.8152,2.816,2.8146,2.8146,2.7837,2.781,2.8112,2.7837,2.7823,2.8133,2.7782,2.7747,2.8125,2.8117,2.8096,2.8054,2.8165,2.82,2.6766,2.7524,2.7894,2.8919,0.0,0.0,0.0,0.0,0.0,0.0,0.0,0.0,0.0,0.0,0.0,0.0,0.0,0.0,0.0,0.0,0.0,0.0,0.0,0.0,0.0,0.0,0.0,0.0,0.0,0.0,0.0,0.0,0.0,3.0188,2.8944,2.8257,2.8257,2.7024,2.6406,2.6406,2.6406,2.6406,2.6406,2.6406,2.6353,2.6246,2.6246,2.6179,2.6052,2.6052,2.6052,2.6066,2.6205,2.6312,2.6406,2.6406,2.6406,2.6406,2.6406,2.6406,2.6406,2.6406,2.6406,2.6426,2.66,2.6653,2.672,2.7014,2.7115,2.7115,2.7115,2.7115,2.7141,2.7262,2.7422,2.7556,2.7556,2.7783,2.8018,2.8018,2.8112,2.82,2.82,2.82,2.82,2.82,2.82,2.82,2.82,2.82,2.82,2.82,2.82,2.82,2.82,2.82,2.82,2.82,2.8072,2.8072,2.8179,2.8072,2.8072,2.82,2.8051,2.8051,2.82,2.82,2.82,2.82,2.82,2.82,2.7705,2.8476,2.8932,0.0,0.0,0.0,0.0,0.0,0.0,0.0,0.0,0.0,0.0,0.0,0.0,0.0,0.0,0.0,0.0,0.0,0.0,0.0,0.0,0.0,0.0,0.0,0.0,0.0,0.0,0.0,0.0,0.0,0.0,0.0,3.013,2.9099,2.8452,2.7103,2.6406,2.6406,2.6406,2.6406,2.6406,2.6406,2.6406,2.6406,2.6406,2.6406,2.6406,2.6406,2.6406,2.6406,2.6406,2.6406,2.6406,2.6406,2.6406,2.6406,2.6406,2.6406,2.64,2.6493,2.6533,2.6587,2.6867,2.6961,2.7028,2.7342,2.7422,2.7449,2.7563,2.751,2.7449,2.7563,2.7716,2.7863,2.7863,2.8045,2.82,2.82,2.82,2.82,2.82,2.82,2.82,2.82,2.82,2.82,2.82,2.82,2.82,2.82,2.82,2.82,2.82,2.82,2.82,2.82,2.82,2.82,2.82,2.82,2.82,2.82,2.82,2.82,2.82,2.82,2.82,2.82,2.82,2.82,2.8775,2.8893,0.0,0.0,0.0,0.0,0.0,0.0,0.0,0.0,0.0,0.0,0.0,0.0,0.0,0.0,0.0,0.0,0.0,0.0,0.0,0.0,0.0,0.0,0.0,0.0,0.0,0.0,0.0,0.0,0.0,0.0,0.0,0.0,2.9468,2.851,2.6505,2.6465,2.6465,2.6465,2.6465,2.6446,2.6406,2.6406,2.6406,2.6406,2.6406,2.6406,2.6406,2.6406,2.6406,2.6406,2.6406,2.6406,2.6406,2.6386,2.6386,2.6386,2.6419,2.6419,2.644,2.6714,2.6807,2.686,2.7195,2.7309,2.7355,2.7629,2.7696,2.7783,2.8112,2.7944,2.7797,2.8112,2.82,2.82,2.82,2.82,2.82,2.82,2.82,2.82,2.82,2.82,2.82,2.82,2.82,2.82,2.82,2.82,2.82,2.82,2.82,2.82,2.82,2.82,2.82,2.82,2.82,2.82,2.82,2.82,2.82,2.82,2.82,2.82,2.82,2.82,2.82,2.82,2.82,2.82,2.8021,0.0,0.0,0.0,0.0,0.0,0.0,0.0,0.0,0.0,0.0,0.0,0.0,0.0,0.0,0.0,0.0,0.0,0.0,0.0,0.0,0.0,0.0,0.0,0.0,0.0,0.0,0.0,0.0,0.0,0.0,0.0,0.0,0.0,3.4451,3.34,3.2814,3.1402,3.0689,3.0689,3.0689,2.9177,2.6406,2.6406,2.6406,2.6406,2.6406,2.6406,2.6406,2.6406,2.6406,2.6406,2.6406,2.6406,2.6413,2.6613,2.6674,2.672,2.6954,2.7021,2.7048,2.7128,2.7155,2.7208,2.7482,2.7583,2.7649,2.7965,2.8045,2.8072,2.8165,2.8146,2.8072,2.8186,2.82,2.82,2.82,2.82,2.82,2.82,2.82,2.82,2.82,2.82,2.82,2.82,2.82,2.82,2.82,2.82,2.82,2.82,2.82,2.82,2.82,2.82,2.82,2.82,2.82,2.82,2.82,2.82,2.82,2.82,2.82,2.82,2.82,2.82,2.82,2.82,2.82,2.82,2.8406,0.0,0.0,0.0,0.0,0.0,0.0,0.0,0.0,0.0,0.0,0.0,0.0,0.0,0.0,0.0,0.0,0.0,0.0,0.0,0.0,0.0,0.0,0.0,0.0,0.0,0.0,0.0,0.0,0.0,0.0,0.0,0.0,0.0,3.6146,3.5124,3.432,3.3095,3.2505,3.2486,3.1666,2.9975,2.7586,2.7586,2.7586,2.7561,2.6748,2.6406,2.6406,2.6406,2.6406,2.6406,2.6406,2.6466,2.6587,2.674,2.6874,2.7028,2.7222,2.7309,2.7322,2.7422,2.7462,2.7516,2.781,2.7903,2.793,2.8138,2.82,2.82,2.82,2.82,2.82,2.82,2.82,2.82,2.82,2.82,2.82,2.82,2.82,2.82,2.82,2.82,2.82,2.82,2.82,2.82,2.82,2.82,2.82,2.82,2.82,2.82,2.82,2.82,2.82,2.82,2.82,2.82,2.82,2.82,2.82,2.82,2.82,2.82,2.82,2.82,2.82,2.82,2.82,2.82,2.9408,0.0,0.0,0.0,0.0,0.0,0.0,0.0,0.0,0.0,0.0,0.0,0.0,0.0,0.0,0.0,0.0,0.0,0.0,0.0,0.0,0.0,0.0,0.0,0.0,0.0,0.0,0.0,0.0,0.0,0.0,0.0,0.0,3.5849,3.5794,3.49,3.3074,3.3055,3.3055,0.0,3.1134,3.0246,3.0207,2.9468,2.9138,2.9022,2.7187,2.6406,2.6406,2.6406,2.6406,2.6406,2.6406,2.656,2.6807,2.6834,2.7054,2.7349,2.7376,2.7389,2.7429,2.7676,2.7756,2.7789,2.8098,2.82,2.82,2.82,2.82,2.82,2.82,2.82,2.82,2.82,2.82,2.82,2.82,2.82,2.82,2.82,2.82,2.82,2.82,2.82,2.82,2.82,2.82,2.82,2.82,2.82,2.82,2.82,2.82,2.82,2.82,2.82,2.82,2.82,2.82,2.82,2.82,2.82,2.82,2.82,2.82,2.82,2.82,2.82,2.82,2.82,2.82,2.82,2.8945,2.9687,0.0,0.0,0.0,0.0,0.0,0.0,0.0,0.0,0.0,0.0,0.0,0.0,0.0,0.0,0.0,0.0,0.0,0.0,0.0,0.0,0.0,0.0,0.0,0.0,0.0,0.0,0.0,0.0,0.0,0.0,0.0,3.7951,3.7933,3.7731,3.729,3.729,3.729,0.0,3.683,3.6627,3.6405,2.9975,2.7044,2.7024,2.6584,2.6406,2.6406,2.6406,2.6406,2.6406,2.6406,2.656,2.6834,2.7101,2.7369,2.7663,2.7911,2.8012,2.8026,2.8072,2.8085,2.8098,2.8186,2.82,2.82,2.82,2.82,2.82,2.82,2.82,2.82,2.82,2.82,2.82,2.82,2.82,2.82,2.82,2.82,2.82,2.82,2.82,2.82,2.82,2.82,2.82,2.82,2.82,2.82,2.82,2.82,2.82,2.82,2.82,2.82,2.82,2.82,2.82,2.82,2.82,2.82,2.82,2.82,2.82,2.82,2.82,2.82,2.82,2.82,2.82,2.9062,0.0,0.0,3.2984,0.0,0.0,0.0,0.0,0.0,0.0,0.0,0.0,0.0,0.0,0.0,0.0,0.0,0.0,0.0,0.0,0.0,0.0,0.0,0.0,0.0,0.0,0.0,0.0,0.0,3.8592,3.8592,3.8592,3.8592,3.8592,3.8592,3.8592,3.8592,3.8592,3.8592,3.8592,3.7603,3.6608,3.5533,3.1249,2.8252,2.6406,2.6406,2.6406,2.6406,2.6406,2.6406,2.6406,2.6406,2.6653,2.7054,2.7235,2.7576,2.7957,2.8146,2.82,2.82,2.82,2.82,2.82,2.82,2.82,2.82,2.82,2.82,2.82,2.82,2.82,2.82,2.82,2.82,2.82,2.82,2.82,2.82,2.82,2.82,2.82,2.82,2.82,2.82,2.82,2.82,2.82,2.82,2.82,2.82,2.82,2.82,2.82,2.82,2.82,2.82,2.82,2.82,2.82,2.82,2.82,2.82,2.82,2.82,2.82,2.82,2.82,2.82,2.82,2.82,2.82,2.9149,0.0,3.2109,3.3707,3.4821,0.0,0.0,0.0,0.0,0.0,0.0,0.0,0.0,0.0,0.0,0.0,0.0,0.0,0.0,0.0,0.0,0.0,0.0,0.0,0.0,0.0,0.0,0.0,0.0,3.8592,3.8592,3.8592,3.8592,3.8592,3.8592,3.8592,3.8592,3.8592,3.8592,3.8574,3.6867,3.4993,3.302,3.302,3.0996,2.7423,2.7083,2.6925,2.6886,2.6544,2.6406,2.6386,2.644,2.6821,2.7309,2.7342,2.7724,2.82,2.82,2.82,2.82,2.82,2.82,2.82,2.82,2.82,2.82,2.82,2.82,2.82,2.82,2.82,2.82,2.82,2.82,2.82,2.82,2.82,2.82,2.82,2.82,2.82,2.82,2.82,2.82,2.82,2.82,2.82,2.82,2.82,2.82,2.82,2.82,2.82,2.82,2.82,2.82,2.82,2.82,2.82,2.82,2.82,2.82,2.82,2.82,2.82,2.82,2.82,2.82,2.82,2.82,2.82,2.8236,0.0,3.2851,0.0,3.5019,3.6155,0.0,0.0,0.0,0.0,0.0,0.0,0.0,0.0,0.0,0.0,0.0,0.0,0.0,0.0,0.0,0.0,0.0,0.0,0.0,0.0,0.0,0.0,3.8592,3.8592,3.8592,3.8592,3.8592,3.8592,3.8592,3.8592,3.8592,3.8592,3.8592,3.8592,3.8318,3.7088,3.5106,3.5106,3.385,3.159,2.9782,2.9002,2.8847,2.7109,2.6406,2.6413,2.6667,2.6974,2.7336,2.7569,2.7877,2.82,2.82,2.82,2.82,2.82,2.82,2.82,2.82,2.82,2.82,2.82,2.82,2.82,2.82,2.82,2.82,2.82,2.82,2.82,2.82,2.82,2.82,2.82,2.82,2.82,2.82,2.82,2.82,2.82,2.82,2.82,2.82,2.82,2.82,2.82,2.82,2.82,2.82,2.82,2.82,2.82,2.82,2.82,2.82,2.82,2.82,2.82,2.82,2.82,2.82,2.82,2.82,2.82,2.82,2.82,2.9258,3.1089,3.2789,0.0,3.5059,3.5957,3.7051,0.0,0.0,0.0,0.0,0.0,0.0,0.0,0.0,0.0,0.0,0.0,0.0,0.0,0.0,0.0,0.0,0.0,0.0,0.0,0.0,0.0,3.8592,3.8592,3.8592,3.8592,3.8592,3.8592,3.8592,3.8592,3.8592,3.8592,3.8592,3.8592,3.8592,3.8117,3.7254,3.7254,3.4881,3.0708,2.9801,2.8764,2.7659,2.6748,2.6406,2.6433,2.6687,2.7001,2.7329,2.7589,2.7903,2.82,2.82,2.82,2.82,2.82,2.82,2.82,2.82,2.82,2.82,2.82,2.82,2.82,2.82,2.82,2.82,2.82,2.82,2.82,2.82,2.82,2.82,2.82,2.82,2.82,2.82,2.82,2.82,2.82,2.82,2.82,2.82,2.82,2.82,2.82,2.82,2.82,2.82,2.82,2.82,2.82,2.82,2.82,2.82,2.82,2.82,2.82,2.82,2.82,2.82,2.82,2.82,2.82,2.82,2.82,0.0,0.0,3.1944,3.3649,3.4648,3.5547,0.0,0.0,0.0,0.0,0.0,0.0,0.0,0.0,0.0,0.0,0.0,0.0,0.0,0.0,0.0,0.0,0.0,0.0,0.0,0.0,0.0,0.0,3.8592,3.8592,3.8592,3.8592,3.8592,3.8592,3.8592,3.8592,3.8592,3.8592,3.8592,3.8592,3.8592,3.8592,3.8592,3.8592,3.5812,3.0923,3.0419,2.9041,2.7109,2.6623,2.6426,2.6533,2.6827,2.7121,2.7436,2.773,2.7991,2.82,2.82,2.82,2.82,2.82,2.82,2.82,2.82,2.82,2.82,2.82,2.82,2.82,2.82,2.82,2.82,2.82,2.82,2.82,2.82,2.82,2.82,2.82,2.82,2.82,2.82,2.82,2.82,2.82,2.82,2.82,2.82,2.82,2.82,2.82,2.82,2.82,2.82,2.82,2.82,2.82,2.82,2.82,2.82,2.82,2.82,2.82,2.82,2.82,2.82,2.82,2.82,2.82,2.82,2.82,0.0,2.8777,0.0,3.1905,3.3551,3.5078,0.0,0.0,0.0,0.0,0.0,0.0,0.0,0.0,0.0,0.0,0.0,0.0,0.0,0.0,0.0,0.0,0.0,0.0,0.0,0.0,0.0,0.0,3.8592,3.8592,3.8592,3.8592,3.8592,3.8592,3.8592,3.8592,3.8592,3.8592,3.8592,3.8592,3.8592,3.8592,3.8592,3.8592,3.7345,3.5087,3.3171,3.1169,2.9099,2.7187,2.6547,2.6807,2.7141,2.7436,2.7709,2.8045,2.8186,2.82,2.82,2.82,2.82,2.82,2.82,2.82,2.82,2.82,2.82,2.82,2.82,2.82,2.82,2.82,2.82,2.82,2.82,2.82,2.82,2.82,2.82,2.82,2.82,2.82,2.82,2.82,2.82,2.82,2.82,2.82,2.82,2.82,2.82,2.82,2.82,2.82,2.82,2.82,2.82,2.82,2.82,2.82,2.82,2.82,2.82,2.82,2.82,2.82,2.82,2.82,2.82,2.82,2.82,2.82,0.0,0.0,2.995,3.1387,3.2832,3.4203,3.5564,3.6619,3.7461,3.8047,0.0,0.0,0.0,0.0,0.0,0.0,0.0,0.0,0.0,0.0,0.0,0.0,0.0,0.0,0.0,0.0,0.0,0.0,0.0,3.8592,3.8592,3.8592,3.8592,3.8592,3.8592,3.8592,3.8592,3.8592,3.8592,3.8592,3.8592,3.8592,3.8592,3.8592,3.7474,3.546,3.4732,3.3266,3.1341,3.0612,2.9721,2.8818,2.9114,2.8603,2.7736,2.8072,2.82,2.82,2.82,2.82,2.82,2.82,2.82,2.82,2.82,2.82,2.82,2.82,2.82,2.82,2.82,2.82,2.82,2.82,2.82,2.8253,2.8412,2.8326,2.82,2.82,2.82,2.82,2.82,2.82,2.82,2.82,2.82,2.82,2.82,2.82,2.82,2.82,2.82,2.82,2.82,2.82,2.82,2.82,2.82,2.82,2.82,2.82,2.82,2.82,2.82,2.82,2.82,2.82,2.82,2.82,2.82,2.82,2.7018,0.0,0.0,0.0,3.1836,3.2871,3.4922,0.0,3.668,3.7521,0.0,0.0,0.0,0.0,0.0,0.0,0.0,0.0,0.0,0.0,0.0,0.0,0.0,0.0,0.0,0.0,0.0,0.0,0.0,0.0,3.8592,3.8592,3.8592,3.8592,3.8592,3.8592,3.8592,3.8592,3.8592,3.8592,3.8592,3.8592,3.8592,3.8592,3.7841,3.6534,3.6534,3.5012,3.2448,3.1872,3.1004,2.9997,2.9595,2.8797,2.789,2.8112,2.82,2.82,2.82,2.82,2.82,2.82,2.82,2.82,2.82,2.82,2.82,2.82,2.82,2.82,2.82,2.82,2.8205,2.8312,2.8318,2.8398,2.8684,2.8511,2.8345,2.8452,2.8406,2.8345,2.8452,2.8312,2.8219,2.8326,2.8318,2.8318,2.8318,2.8398,2.8465,2.8465,2.8406,2.8318,2.8318,2.8245,2.82,2.82,2.82,2.82,2.82,2.82,2.82,2.82,2.82,2.82,2.82,2.82,2.82,2.82,2.82,2.82,0.0,0.0,0.0,0.0,0.0,0.0,3.4473,0.0,3.5137,3.6875,3.756,0.0,0.0,0.0,0.0,0.0,0.0,0.0,0.0,0.0,0.0,0.0,0.0,0.0,0.0,0.0,0.0,0.0,3.8592,3.8592,3.8592,3.8592,3.8592,3.8592,3.8592,3.8592,3.8592,3.8592,3.8592,3.8592,3.8592,3.8592,3.8592,3.8612,3.8612,3.8612,3.8631,3.6386,3.2574,3.0825,3.0216,3.0224,2.8469,2.7966,2.82,2.82,2.82,2.82,2.82,2.82,2.82,2.82,2.82,2.82,2.82,2.82,2.82,2.82,2.8213,2.8226,2.8205,2.8205,2.8286,2.8551,2.8596,2.8676,2.897,2.881,2.8689,2.8948,2.8796,2.8689,2.8948,2.8572,2.8312,2.8577,2.8596,2.8596,2.8596,2.885,2.9001,2.9001,2.877,2.8617,2.8604,2.8358,2.8226,2.8226,2.8205,2.8205,2.8205,2.8205,2.8205,2.8205,2.8205,2.8205,2.8192,2.8213,2.82,2.82,2.8213,2.8226,2.634,0.0,0.0,0.0,0.0,0.0,0.0,0.0,3.3809,3.5566,3.625,3.6838,0.0,0.0,0.0,0.0,0.0,0.0,0.0,0.0,0.0,0.0,0.0,0.0,0.0,0.0,0.0,0.0,3.8592,3.8592,3.8592,3.8592,3.8592,3.8592,3.8592,3.8592,3.8592,3.8592,3.8592,3.8592,3.8592,3.8592,3.8612,3.8905,3.9023,3.9043,3.9375,3.8913,3.767,3.5287,3.3767,3.2778,3.0741,2.9235,2.82,2.82,2.82,2.82,2.82,2.82,2.82,2.82,2.82,2.82,2.82,2.82,2.82,2.82,2.8353,2.8524,2.8738,2.877,2.8796,2.8876,2.8903,2.8983,2.9299,2.9299,2.9205,2.9028,2.8935,2.8908,2.8988,2.8876,2.8796,2.889,2.8903,2.8903,2.8903,2.8948,2.9001,2.9001,2.8921,2.881,2.8631,2.8724,2.8698,2.8497,2.8309,2.8207,2.8207,2.8207,2.8207,2.8207,2.8207,2.8201,2.8209,2.8201,2.82,2.8192,2.8398,2.8505,0.0,0.0,0.0,0.0,0.0,0.0,0.0,3.1445,0.0,0.0,3.5332,3.6094,0.0,0.0,0.0,0.0,0.0,0.0,0.0,0.0,0.0,0.0,0.0,0.0,0.0,3.8846,3.8592,3.8592,3.8592,3.8592,3.8592,3.8592,3.8592,3.8592,3.8592,3.8592,3.8592,3.8592,3.8592,3.8592,3.8592,3.8592,3.8612,3.9022,3.9199,3.9219,3.9687,4.0,3.9966,3.7528,3.6072,3.5095,3.2189,3.0432,2.9432,2.8537,2.82,2.82,2.82,2.82,2.82,2.82,2.82,2.82,2.82,2.8272,2.8379,2.8379,2.8551,2.881,2.8948,2.9001,2.905,2.917,2.9197,2.9277,2.9606,2.9659,2.9606,2.941,2.929,2.9237,2.9357,2.9183,2.9063,2.9183,2.9197,2.9197,2.9197,2.9304,2.9384,2.9384,2.9277,2.9152,2.8991,2.8996,2.8978,2.8904,2.8673,2.8657,2.8901,2.8923,2.8923,2.8923,2.8923,2.8786,2.8527,2.8308,2.826,2.8358,2.8524,2.8649,0.0,0.0,0.0,0.0,0.0,0.0,3.0552,3.0625,3.0835,0.0,3.4469,3.5329,3.6245,0.0,0.0,0.0,0.0,0.0,0.0,0.0,0.0,0.0,0.0,0.0,3.918,3.8846,3.8592,3.8592,3.8592,3.8592,3.8592,3.8592,3.8592,3.8592,3.8592,3.8592,3.8592,3.8592,3.8592,3.8592,3.8592,3.8612,3.8671,3.9082,3.9297,3.9375,3.9844,4.0254,4.0432,3.8521,3.7586,3.6997,3.3238,3.1764,3.1537,2.9642,2.8922,2.8901,2.8628,2.8558,2.8516,2.8284,2.82,2.82,2.82,2.8385,2.8596,2.8684,2.8863,2.9055,2.9081,2.9095,2.9183,2.9472,2.9526,2.9606,2.9838,2.9891,2.9891,2.9891,2.9713,2.9619,2.9851,2.9464,2.921,2.9499,2.9526,2.9526,2.9526,2.9753,2.9891,2.9891,2.9686,2.9526,2.9508,2.925,2.916,2.9321,2.9169,2.934,2.9888,2.991,2.991,2.991,2.9904,2.9632,2.9098,2.8527,2.8395,2.8657,2.8684,2.8823,0.0,0.0,2.8633,0.0,0.0,0.0,0.0,2.933,3.0151,0.0,3.2457,3.3195,3.4388,3.5388,0.0,0.0,0.0,0.0,0.0,0.0,0.0,0.0,0.0,0.0,3.9238,3.8846,3.8592,3.8592,3.8592,3.8592,3.8592,3.8592,3.8592,3.8592,3.8592,3.8592,3.8592,3.8592,3.8592,3.8592,3.8592,3.8768,3.9101,3.9551,3.9941,4.0274,4.0742,4.0996,4.1016,4.0627,3.9399,3.753,3.5039,3.4063,3.4002,3.3594,3.3447,3.3165,3.1407,3.0786,3.0489,2.8754,2.82,2.82,2.82,2.8385,2.8711,2.9179,2.9352,2.9446,2.9664,2.9717,2.9731,2.982,2.9811,2.9847,2.9878,2.9891,2.9891,2.9891,2.9873,2.9824,2.9878,2.9797,2.9744,2.9797,2.9811,2.9811,2.9811,2.9887,2.9891,2.9891,2.9838,2.974,2.9521,2.9646,2.9646,2.9463,2.9642,2.9775,2.99,2.99,2.99,2.99,2.9898,2.9842,2.9719,2.8976,2.8721,2.8943,2.9205,2.9339,0.0,0.0,2.8853,2.8639,0.0,0.0,0.0,0.0,2.9369,3.0898,3.1401,3.187,3.2961,0.0,3.4394,0.0,0.0,0.0,0.0,0.0,0.0,0.0,0.0,0.0,3.8925,3.871,3.8592,3.8592,3.8592,3.8592,3.8592,3.8592,3.8592,3.8592,3.8592,3.8592,3.8592,3.8592,3.8592,3.8592,3.8807,3.9004,3.9219,3.9902,4.0313,4.0528,4.0996,4.1191,4.1191,4.1191,4.0568,3.9335,3.7159,3.6301,3.6181,3.5076,3.4692,3.4388,3.2176,3.1392,3.1055,2.8901,2.82,2.8219,2.8345,2.8706,2.9138,2.9579,2.97,2.9726,2.9887,2.9891,2.9891,2.9891,2.9891,2.9891,2.9891,2.9891,2.9891,2.9891,2.9891,2.9891,2.9891,2.9891,2.9891,2.9891,2.9891,2.9891,2.9891,2.9891,2.9891,2.9891,2.9891,2.986,2.9713,2.9811,2.9838,2.9713,2.9833,2.9891,2.9891,2.9891,2.9891,2.9891,2.9905,2.9904,2.9904,2.9495,2.926,2.9171,2.9384,2.9566,0.0,0.0,0.0,0.0,0.0,2.8789,0.0,0.0,0.0,3.0366,0.0,0.0,0.0,0.0,0.0,0.0,0.0,0.0,0.0,0.0,0.0,0.0,0.0,0.0,0.0,3.8319,3.8356,3.8573,3.8358,3.8338,3.8573,3.8592,3.8592,3.8592,3.8592,3.8592,3.8592,3.8592,3.8631,3.871,3.9043,3.9297,3.9454,4.0176,4.0547,4.0645,4.1035,4.1191,4.1191,4.1191,4.1191,4.1036,3.9217,3.8528,3.833,3.6582,3.596,3.5581,3.294,3.2052,3.1598,2.9048,2.8219,2.8339,2.8657,2.9112,2.965,3.0378,3.0571,3.0669,3.1115,3.0892,3.0571,3.0571,3.0227,2.9891,2.9891,2.9891,2.9891,2.9891,2.9891,2.9891,2.9891,2.9891,2.9891,2.9891,2.9891,2.9891,2.9891,2.9891,2.9891,2.9891,2.9891,2.9891,2.9891,2.9891,2.9891,2.9891,2.9891,2.9891,2.9891,2.9891,2.9891,2.9891,2.9891,2.9891,2.9891,2.9891,2.9726,2.942,2.9544,2.9686,0.0,0.0,0.0,0.0,3.0073,0.0,0.0,0.0,0.0,2.9715,0.0,0.0,0.0,0.0,0.0,0.0,0.0,0.0,0.0,0.0,0.0,0.0,0.0,0.0,0.0,3.7324,3.7381,3.8532,3.7537,3.7418,3.8534,3.8592,3.8592,3.8592,3.8592,3.8592,3.8592,3.8592,3.8788,3.9141,3.918,3.9591,4.0352,4.045,4.0742,4.1113,4.1172,4.1191,4.1191,4.1191,4.1191,4.1172,4.0919,4.0821,4.0802,4.0568,4.0451,3.9864,3.5759,3.4327,3.3655,2.9537,2.8345,2.8657,2.924,2.9454,2.999,3.2338,3.2999,3.3468,3.549,3.4526,3.2999,3.2999,3.1412,2.9891,2.9891,2.9891,2.9891,2.9891,2.9891,2.9891,2.9891,2.9891,2.9891,2.9891,2.9891,2.9891,2.9891,2.9891,2.9891,2.9891,2.9891,2.9891,2.9891,2.9891,2.9891,2.9891,2.9891,2.9891,2.9891,2.9891,2.9891,2.9891,2.9891,2.9891,2.9891,2.9891,2.9878,2.9838,2.9838,2.9864,0.0,0.0,0.0,0.0,0.0,0.0,0.0,0.0,2.9272,0.0,0.0,0.0,0.0,0.0,0.0,0.0,0.0,0.0,0.0,0.0,0.0,0.0,0.0,0.0,0.0,0.0,0.0,0.0,3.7127,3.7127,3.8144,3.8456,3.8592,3.8592,3.8592,3.8592,3.8592,3.8592,3.8807,3.9199,3.9473,3.9922,4.0508,4.0781,4.0996,4.1191,4.1191,4.1191,4.1191,4.1191,4.1191,4.1191,4.1191,4.1191,4.1191,4.1191,4.1191,4.0763,3.7637,3.6562,3.6095,3.3237,3.2687,3.3169,3.3437,3.3607,3.3964,3.5067,3.5375,3.5288,3.4918,3.4126,3.3065,3.1701,3.0616,2.9891,2.9891,2.9891,2.9891,2.9891,2.9891,2.9891,2.9891,2.9891,2.9891,2.9891,2.9891,2.9891,2.9891,2.9891,2.9891,2.9891,2.9891,2.9891,2.9891,2.9891,2.9891,2.9891,2.9891,2.9891,2.9891,2.9891,2.9891,2.9891,2.9891,2.9891,2.9891,2.9891,2.9891,2.9891,2.9891,2.9891,0.0,0.0,0.0,0.0,0.0,0.0,0.0,0.0,0.0,0.0,0.0,0.0,0.0,0.0,0.0,0.0,0.0,0.0,0.0,0.0,0.0,0.0,0.0,0.0,0.0,0.0,0.0,0.0,0.0,3.656,3.7834,3.8223,3.8475,3.8611,3.8592,3.8592,3.8592,3.871,3.8983,3.9394,3.9844,4.0274,4.0684,4.1054,4.1191,4.1191,4.1191,4.1191,4.1191,4.1191,4.1191,4.1191,4.1191,4.1191,4.1191,4.1191,4.1191,4.0899,3.8795,3.7752,3.715,3.5977,3.5961,3.6404,3.6482,3.6654,3.6938,3.7583,3.7843,3.7691,3.6676,3.604,3.5222,3.3516,3.262,3.2115,3.2021,3.197,3.197,3.197,3.197,3.197,3.197,3.0813,2.9891,2.9891,2.9891,2.9891,2.9891,2.9891,2.9891,2.9891,2.9891,2.9891,2.9891,2.9891,2.9891,2.9891,2.9891,2.9891,2.9891,2.9891,2.9891,2.9891,2.9891,2.9891,2.9891,2.9891,2.9891,2.9891,2.9891,2.9891,0.0,0.0,0.0,0.0,0.0,0.0,0.0,0.0,3.0293,0.0,0.0,0.0,0.0,0.0,0.0,0.0,0.0,0.0,0.0,0.0,0.0,0.0,0.0,0.0,0.0,0.0,0.0,0.0,0.0,0.0,3.7775,3.7912,3.8144,3.8573,3.8592,3.8592,3.8592,3.9003,3.9414,3.9883,4.0274,4.0723,4.1172,4.1191,4.1191,4.1191,4.1191,4.1191,4.1191,4.1191,4.1191,4.1191,4.1191,4.1191,4.1191,4.1191,4.1191,4.0938,3.9108,3.7386,3.6012,3.6285,3.6392,3.6453,3.6715,3.6792,3.7282,3.9543,4.0483,4.126,4.3474,4.27,4.1322,4.1236,3.9497,3.7727,3.7354,3.7249,3.7249,3.7249,3.7249,3.7249,3.7249,3.3161,2.9891,2.9891,2.9891,2.9891,2.9891,2.9891,2.9891,2.9891,2.9891,2.9891,2.9891,2.9891,2.9891,2.9891,2.9891,2.9891,2.9891,2.9891,2.9891,2.9891,2.9891,2.9891,2.9891,2.9891,2.9891,2.9891,2.9891,2.9891,0.0,0.0,3.4238,3.2222,0.0,0.0,0.0,0.0,0.0,0.0,0.0,0.0,0.0,0.0,0.0,0.0,0.0,0.0,0.0,0.0,0.0,0.0,0.0,0.0,0.0,0.0,0.0,0.0,3.4587,0.0,0.0,3.7599,3.797,3.8144,3.8436,3.8592,3.8592,3.8984,3.9434,3.9902,4.0313,4.0762,4.1191,4.1191,4.1191,4.1191,4.1191,4.1191,4.1191,4.1191,4.1191,4.123,4.1504,4.1602,4.1602,4.1602,4.1602,4.1542,4.1215,4.089,4.0694,4.0802,4.1004,4.1245,4.1333,4.1367,4.1535,4.2326,4.2858,4.3052,4.2273,4.1843,4.1206,3.9641,3.8694,3.8048,3.7931,3.7898,3.7898,3.7898,3.7694,3.7506,3.7506,3.5816,3.3935,3.2425,3.0892,2.9891,2.9891,2.9891,2.9891,2.9891,2.9891,2.9891,2.9891,2.9891,2.9891,2.9891,2.9891,2.9891,2.9891,2.9891,2.9891,2.9891,2.9891,2.9891,2.9891,2.9891,2.9891,2.9891,2.9891,2.9891,3.4528,3.5192,0.0,3.3707,3.3574,0.0,0.0,0.0,0.0,0.0,0.0,0.0,0.0,0.0,0.0,0.0,0.0,0.0,0.0,0.0,0.0,0.0,0.0,0.0,0.0,0.0,3.293,3.4391,3.4082,0.0,0.0,0.0,3.7756,3.7892,3.8377,3.8671,3.8807,3.9238,3.9668,4.0117,4.0547,4.0898,4.1191,4.1191,4.1191,4.1191,4.1191,4.1191,4.1191,4.1191,4.1191,4.123,4.1641,4.1797,4.1816,4.1973,4.2129,4.2285,4.2558,4.293,4.3321,4.3321,4.3476,4.3711,4.3711,4.3711,4.373,4.3906,4.4277,4.4291,4.2962,4.2954,4.2903,4.1381,4.1028,4.0993,4.083,4.0794,4.0794,4.0794,4.0578,4.0366,4.0203,3.9366,3.7777,3.5009,3.3314,3.2064,3.1234,3.1137,3.0825,2.9981,2.9891,2.9891,2.9891,2.9891,2.9967,3.0074,2.997,2.9903,2.9903,2.9903,2.9894,2.9891,2.9891,2.9891,2.9891,2.9891,2.9891,2.9891,2.9891,2.9891]}]]